GFSFLT1_700_spd_000.txt.gz
Wind_Speed
18 18 18 18 20 22 26 28 28 26 27 27 25 25 26 26 26 24 21 22 25 27 29 30 31 31 30 31 32 32 31 32
14 11 17 16 18 22 22 25 25 24 23 26 28 28 27 27 27 28 29 26 24 26 29 29 30 31 32 30 29 28 30 32
8 11 13 15 15 15 26 24 20 22 32 29 32 33 30 29 27 29 31 32 31 31 31 30 32 35 36 34 33 36 36 37
14 15 19 17 17 24 32 36 27 28 38 37 43 40 35 31 29 31 33 36 36 36 35 31 33 35 37 38 42 41 39 41
20 26 31 27 28 30 39 41 34 34 40 40 43 46 44 37 34 35 37 39 40 39 39 39 38 40 42 45 46 44 42 43
23 26 26 26 29 33 37 39 36 35 33 38 46 50 44 42 38 37 41 45 45 41 39 41 44 45 47 45 42 45 46 42
22 24 25 27 30 34 38 38 39 36 34 37 48 42 41 40 37 38 42 49 48 46 43 44 46 45 50 51 51 49 47 53
23 26 32 33 33 39 33 33 32 37 37 46 41 37 38 37 38 41 42 45 53 50 46 49 49 52 51 53 52 59 54 57
30 31 32 34 34 31 30 37 34 36 48 51 42 40 41 40 41 44 45 39 48 51 49 52 53 52 55 59 61 58 52 49
39 40 40 37 30 29 31 38 44 52 59 50 47 46 41 41 45 45 44 41 40 49 57 52 55 57 48 38 42 42 44 45
39 41 39 38 40 41 43 48 52 52 48 49 49 48 50 48 47 41 37 35 36 45 49 49 43 40 47 42 40 40 41 41
28 28 28 33 39 45 54 50 48 49 50 50 52 53 52 49 43 33 33 33 37 40 43 41 38 40 41 38 37 38 39 40
38 38 39 42 50 56 46 48 48 48 49 53 54 53 51 42 36 33 36 31 34 35 33 34 35 35 37 38 39 39 39 40
38 43 48 51 47 47 49 46 49 53 54 53 53 53 48 42 37 33 31 29 26 32 35 34 35 36 37 38 39 39 39 39
39 49 46 43 46 44 45 49 52 54 52 50 49 45 42 38 36 34 32 32 33 33 33 34 35 36 37 37 38 37 37 38
44 49 42 47 46 44 50 51 51 53 52 49 44 35 39 37 37 37 37 29 27 31 32 36 38 38 38 38 38 40 42 42
47 43 48 40 45 48 48 51 51 51 49 42 30 29 36 37 34 34 34 34 32 34 36 39 39 37 38 39 41 42 41 42
40 40 42 45 47 50 52 51 51 49 39 27 22 23 27 31 36 35 34 34 36 39 40 39 38 37 38 40 40 42 43 45
35 40 43 46 49 51 53 51 47 37 28 25 22 22 24 28 28 31 32 37 40 42 40 38 37 37 38 38 40 43 45 44

GFSFLT1_700_spd_003.txt.gz
Wind_Speed
11 10 12 10 12 14 17 16 23 25 18 22 24 24 27 28 29 27 25 25 26 27 28 29 31 29 27 26 26 27 27 28
10 7 5 9 10 16 17 17 25 28 29 31 31 32 29 31 32 32 30 27 27 28 29 29 30 31 30 29 28 27 26 27
7 8 13 11 10 15 15 21 28 28 29 32 35 38 34 36 34 31 31 32 32 31 31 32 33 35 35 35 34 33 32 32
10 13 17 17 15 14 21 27 32 34 33 35 36 41 38 41 35 31 32 34 36 37 38 39 40 40 38 38 38 38 36 37
16 21 24 28 28 31 32 33 35 38 37 41 40 42 41 47 42 36 35 35 36 37 39 42 46 46 41 42 43 43 42 43
24 27 30 31 31 31 33 35 36 35 37 38 39 42 42 50 44 42 40 40 42 42 41 45 45 42 47 40 43 42 45 48
24 26 28 31 30 33 35 36 36 39 39 39 38 44 50 50 43 43 45 44 43 44 45 44 49 46 53 43 47 52 52 50
23 27 31 29 29 29 32 35 36 38 41 43 47 49 45 43 45 45 44 45 47 46 45 42 51 55 56 53 55 59 59 62
27 24 28 27 25 30 36 37 37 42 48 52 47 45 45 45 46 47 49 50 48 48 45 40 51 52 55 54 63 67 64 62
19 27 28 29 33 35 40 44 48 53 49 46 48 47 46 49 50 50 49 45 40 36 34 35 43 53 58 61 63 56 49 40
26 28 31 34 36 38 44 52 53 48 48 45 47 51 53 53 51 48 40 32 28 29 30 31 39 46 44 44 41 42 46 46
33 36 37 36 40 44 49 48 47 47 47 49 50 53 56 58 54 47 33 30 31 31 29 29 37 43 42 39 37 38 39 40
35 39 41 43 44 45 45 47 48 45 46 48 53 54 53 52 50 42 33 32 33 28 27 29 32 35 36 38 40 42 44 43
40 40 45 50 47 44 46 43 42 45 50 52 54 53 50 48 39 33 34 36 36 32 30 30 32 34 36 39 41 42 42 42
47 48 46 45 42 40 40 44 45 51 55 55 54 51 46 34 30 35 36 37 35 34 31 29 29 31 34 38 40 40 41 40
53 48 43 41 39 40 43 45 52 55 54 53 51 44 32 28 33 36 36 35 34 30 32 35 35 36 39 40 41 41 40 40
48 43 38 39 38 42 46 51 53 54 55 50 40 29 26 26 26 26 26 25 27 32 36 39 40 41 42 43 43 43 42 41
51 46 37 33 39 46 47 49 51 53 50 40 30 28 24 28 31 33 33 29 31 36 39 41 42 41 42 43 43 43 42 41
47 37 35 40 43 47 50 50 49 45 37 33 32 30 29 28 30 31 30 33 38 39 40 40 39 39 41 43 43 42 41 41

GFSFLT1_700_spd_006.txt.gz
Wind_Speed
12 12 12 8 11 14 17 19 17 21 26 25 29 28 31 32 32 34 35 29 28 29 29 29 30 29 28 29 30 31 31 31
14 12 6 7 7 12 18 18 22 26 29 28 27 29 30 30 31 32 34 31 30 29 30 31 33 34 31 30 29 29 29 29
10 10 11 16 16 10 14 15 21 27 30 33 32 31 31 31 34 35 37 36 35 35 35 35 36 38 37 37 38 37 37 34
7 12 15 19 19 16 17 22 27 28 30 31 33 35 38 39 39 41 45 43 36 39 41 42 42 42 42 41 43 44 41 41
12 17 22 22 23 22 25 25 26 29 32 34 36 39 41 43 45 48 48 39 38 40 45 46 45 44 44 41 44 46 45 48
23 22 22 23 23 24 25 26 29 33 33 35 38 40 44 51 49 45 44 45 44 45 46 48 49 48 48 44 48 47 50 50
18 20 25 24 23 26 27 27 30 33 34 36 39 45 48 45 45 46 46 47 47 48 49 51 52 53 52 50 54 54 56 56
21 25 27 23 25 27 28 30 33 36 36 41 45 42 42 44 46 47 45 46 48 49 50 51 53 52 51 48 50 58 59 58
22 26 22 27 26 29 31 34 36 38 42 40 40 45 47 46 43 46 50 50 50 49 50 48 45 40 36 36 45 60 62 68
21 20 25 25 28 31 35 41 44 45 44 45 47 47 43 45 49 51 52 50 50 46 38 34 31 29 32 36 47 48 55 43
24 25 27 31 37 43 48 50 53 53 49 47 42 44 50 53 55 56 54 51 47 36 31 30 29 29 30 33 40 45 43 40
29 31 35 41 49 52 56 53 48 44 41 41 45 51 56 57 55 55 53 47 39 31 30 31 33 28 32 34 34 35 35 36
34 38 44 47 51 52 50 46 42 39 41 46 51 56 54 57 55 51 47 39 32 33 34 35 30 29 30 31 32 32 35 38
40 44 49 49 45 46 44 42 40 40 45 51 51 56 56 54 50 43 36 32 32 36 35 35 31 31 31 31 32 33 36 39
47 46 44 46 45 42 42 38 39 46 50 52 56 58 56 48 42 33 30 33 32 31 31 33 31 31 32 32 33 36 38 39
48 49 49 48 47 51 45 40 45 47 51 54 56 54 47 38 30 30 27 28 29 30 28 31 34 34 36 39 40 41 40 39
50 51 55 50 45 38 41 45 49 53 54 54 50 43 37 33 32 30 30 29 23 25 31 35 37 38 40 42 42 42 41 41
42 55 47 36 40 42 44 47 52 54 52 47 38 38 33 34 32 32 33 34 35 36 37 37 38 38 40 41 41 42 42 42
50 47 35 39 43 46 47 49 51 50 43 39 37 33 32 35 37 35 33 33 34 36 36 37 36 36 38 39 41 42 41 40

GFSFLT1_700_spd_009.txt.gz
Wind_Speed
13 11 11 11 7 9 14 17 18 20 24 25 24 23 23 24 26 26 30 32 33 34 30 31 32 33 32 32 33 33 33 32
12 12 10 6 9 8 10 13 16 17 21 24 25 25 24 25 28 30 32 35 37 39 36 31 32 36 36 37 38 39 39 35
7 7 9 12 13 8 6 11 14 18 22 25 28 30 30 31 33 36 39 42 41 41 40 39 38 39 40 40 41 44 43 42
5 9 12 15 14 11 9 12 16 21 25 27 29 32 35 37 37 39 42 41 39 39 40 41 42 44 46 45 45 45 47 46
8 13 14 14 16 14 14 17 22 26 29 31 33 36 37 39 43 47 43 42 44 45 42 41 41 44 46 48 49 49 49 51
15 14 16 19 18 15 17 22 26 29 32 35 38 40 41 44 48 44 43 46 46 42 42 46 48 47 48 51 54 55 53 51
17 18 20 20 22 21 25 29 31 34 37 40 41 45 48 49 44 45 46 43 43 47 47 48 47 50 52 52 53 56 56 54
20 20 22 22 24 26 30 32 35 38 41 45 47 49 50 47 45 42 46 49 50 51 51 52 52 52 55 53 49 47 45 44
19 22 24 28 29 34 36 35 37 44 48 49 45 41 41 41 39 43 49 52 52 52 54 56 54 52 46 41 36 35 33 36
18 22 26 31 34 35 37 44 44 45 46 43 40 40 41 41 43 47 49 49 48 51 53 51 43 39 35 31 32 31 36 31
22 25 28 32 38 44 49 49 50 48 47 45 44 41 41 43 45 49 52 51 50 46 42 37 33 32 31 31 34 33 35 37
27 30 35 41 46 50 49 47 48 48 47 46 46 46 46 50 52 54 54 50 43 36 32 29 30 33 33 29 29 31 30 34
29 36 41 43 40 40 45 44 44 45 47 47 41 48 51 53 55 56 52 44 34 29 28 28 34 34 37 32 30 31 30 31
36 37 38 42 43 42 47 43 43 42 38 42 44 50 53 54 53 46 38 31 29 28 26 30 30 30 34 31 30 32 30 30
42 42 43 46 43 50 43 37 37 40 43 47 52 54 52 47 42 36 32 30 29 28 29 32 35 34 32 34 34 35 36 35
47 46 45 47 49 40 32 35 41 44 45 49 51 49 45 41 38 34 33 30 31 33 32 31 32 36 38 38 36 37 37 36
48 47 49 51 38 33 39 42 44 45 48 49 47 42 37 37 36 36 37 35 33 33 32 32 32 33 34 35 35 36 35 36
48 41 46 35 40 45 41 42 45 46 46 45 41 36 36 38 38 34 32 31 30 29 31 33 34 34 35 35 35 37 37 37
40 36 37 40 42 42 42 43 45 45 44 41 38 36 37 36 31 30 29 29 30 33 35 36 35 34 35 35 36 36 35 35

GFSFLT1_700_spd_012.txt.gz
Wind_Speed
15 13 12 12 12 11 13 15 19 20 19 19 20 21 22 22 24 26 29 30 33 35 34 31 31 31 30 32 34 36 39 38
15 13 13 12 11 11 13 15 16 18 18 20 23 25 26 27 27 29 32 34 36 38 38 36 35 38 37 36 37 38 38 39
12 11 12 12 13 13 12 13 16 17 21 24 27 29 30 32 35 35 37 40 42 45 43 39 39 39 38 36 37 40 43 42
9 10 11 14 15 16 17 17 18 21 24 27 31 35 37 38 39 40 41 43 47 44 43 44 41 37 39 40 42 45 48 48
7 10 14 15 18 18 16 19 23 26 28 31 34 38 40 42 45 47 49 51 48 43 40 40 42 44 45 45 46 47 49 51
11 14 16 18 18 18 20 23 27 29 32 35 39 40 44 50 54 54 54 48 44 39 40 42 44 43 46 47 48 51 54 57
14 17 18 20 21 21 22 25 29 31 37 39 42 44 49 52 50 49 48 46 39 42 42 41 46 48 50 50 53 55 58 57
19 20 20 23 25 25 27 29 35 42 43 46 51 51 51 49 49 48 48 44 46 42 49 54 53 54 55 59 59 57 54 51
17 19 23 26 28 29 33 37 39 43 48 47 45 46 47 47 48 48 48 48 45 54 54 55 54 54 54 52 47 46 41 40
23 24 26 29 32 36 37 42 44 43 44 47 47 46 45 45 47 47 44 48 54 55 54 53 50 46 42 39 34 34 38 39
22 23 26 28 32 37 38 40 43 44 44 44 44 45 45 44 42 48 52 54 54 53 47 42 37 33 29 34 35 34 31 31
27 24 26 32 35 38 42 43 42 44 40 37 38 38 42 44 47 51 53 50 45 39 34 30 29 26 31 37 39 34 29 29
29 30 35 39 42 40 42 45 39 33 31 33 40 43 46 48 51 50 43 38 34 31 29 27 26 34 39 36 36 33 31 30
31 36 42 44 43 42 41 36 33 33 37 43 45 47 49 50 48 41 35 32 26 27 28 30 32 35 38 38 35 32 33 34
39 43 42 40 39 37 37 36 38 39 39 43 47 48 48 46 40 36 35 32 27 29 32 35 37 36 36 34 37 38 39 39
43 42 36 34 34 35 36 36 38 42 45 47 47 47 44 39 36 35 37 35 32 30 30 30 30 31 33 33 34 36 36 36
43 36 31 34 37 36 35 38 41 43 45 46 46 44 41 36 35 36 34 31 29 28 27 28 32 34 37 36 36 36 36 35
35 31 35 37 37 35 36 39 41 43 44 44 43 40 37 34 34 31 29 30 29 29 32 35 37 36 36 36 36 35 34 33
29 31 36 33 32 36 38 38 40 42 42 42 41 39 35 35 30 31 30 30 31 34 37 37 35 34 35 34 34 34 34 34

GFSFLT1_700_spd_015.txt.gz
Wind_Speed
14 16 18 17 18 17 19 21 22 24 25 23 23 23 25 28 30 31 33 33 35 37 38 39 38 40 37 37 37 35 35 35
27 20 20 20 19 18 17 17 19 21 23 22 24 25 29 32 35 39 38 40 42 44 44 46 47 48 41 40 37 36 35 35
20 20 18 15 12 12 14 15 16 19 23 24 26 29 32 35 38 41 41 45 44 47 50 52 53 49 45 40 36 37 39 39
13 13 13 13 15 17 19 22 23 22 25 29 31 33 36 38 40 42 43 46 51 53 53 53 49 44 42 40 41 43 43 41
9 11 12 15 17 20 23 24 24 25 29 33 34 37 40 41 44 49 53 55 53 49 48 49 49 44 46 47 43 44 48 49
12 14 16 18 21 24 26 27 29 30 33 35 38 42 45 46 51 55 52 52 51 50 48 48 45 46 48 46 51 54 55 57
16 17 21 25 25 24 25 27 30 33 33 39 44 47 50 50 50 51 51 51 51 50 50 50 50 51 51 59 59 58 59 60
16 17 13 22 27 27 27 27 30 38 44 45 47 49 47 47 47 48 49 51 51 51 51 51 51 56 63 63 61 59 59 50
20 21 22 24 29 31 32 33 33 39 44 46 45 45 46 47 47 46 47 47 46 47 50 55 59 57 52 51 46 41 39 42
11 13 15 29 31 33 34 34 35 40 42 42 42 41 42 42 43 43 44 46 50 53 54 54 51 49 43 38 34 33 37 37
16 18 21 27 33 34 40 44 45 45 40 37 38 39 40 42 44 47 50 52 53 52 47 40 40 35 33 31 32 37 38 33
19 22 24 27 27 33 38 41 41 36 36 40 40 41 44 46 49 50 52 50 46 37 33 28 29 30 31 32 35 37 37 36
19 23 25 29 36 42 42 37 33 35 36 37 39 43 46 46 49 50 50 45 34 31 34 34 34 36 35 32 31 34 36 31
26 28 34 37 41 42 34 34 38 36 36 38 40 41 45 46 47 45 44 39 35 35 32 31 32 35 37 38 35 35 36 36
31 40 41 44 34 29 36 36 35 36 38 40 42 43 45 45 43 40 37 35 36 34 32 30 30 30 31 32 32 34 35 36
40 41 38 32 26 35 37 34 35 38 40 41 40 41 41 38 39 38 37 37 33 31 30 30 30 31 31 36 36 36 35 35
38 35 31 29 31 30 28 35 40 40 40 36 32 36 39 38 37 35 35 32 31 30 29 31 31 30 36 35 33 35 35 34
33 34 27 25 26 27 31 34 32 35 36 35 34 40 37 36 32 30 28 30 29 29 28 28 32 31 35 34 34 35 36 36
33 28 27 30 31 32 36 35 33 33 31 33 43 42 36 32 29 28 28 26 26 26 28 32 33 32 37 38 38 39 39 37

GFSFLT1_700_spd_018.txt.gz
Wind_Speed
18 22 21 20 22 19 17 22 24 25 23 23 26 28 27 29 29 32 36 36 38 40 41 42 45 46 47 49 48 48 45 44
24 24 28 21 19 20 24 19 16 19 23 24 26 27 29 28 31 34 38 41 40 42 45 46 49 53 52 49 47 46 44 43
26 25 25 19 16 12 14 16 17 19 23 24 26 29 31 32 34 44 43 47 48 47 52 54 53 49 47 46 45 46 45 42
26 24 14 12 13 14 17 21 23 24 24 28 28 31 32 37 42 44 48 48 48 50 50 49 50 50 50 47 46 44 46 44
7 9 11 13 15 18 20 25 30 30 29 31 33 37 39 41 44 45 49 48 48 49 48 49 50 51 51 50 49 49 50 53
9 11 17 19 19 21 24 27 31 34 31 32 34 37 40 43 44 46 47 48 48 50 49 50 50 50 50 51 53 53 53 53
12 15 18 24 27 29 27 26 27 30 38 39 39 40 42 46 47 48 49 49 48 47 48 49 49 51 52 53 54 56 58 58
3 2 7 16 25 29 29 29 29 32 35 40 44 48 51 50 48 45 43 44 45 45 48 51 53 57 58 58 56 51 44 38
8 13 17 21 26 30 29 31 32 35 40 45 49 51 47 41 42 42 42 45 47 50 52 53 53 53 52 47 41 40 37 36
11 11 18 26 33 34 32 34 37 40 43 45 42 40 43 42 40 43 45 46 46 49 50 52 52 48 37 33 34 32 33 36
14 19 18 25 35 37 34 39 44 47 43 38 41 40 41 43 43 44 45 47 49 49 48 44 34 35 36 36 36 35 35 32
18 22 30 36 34 40 35 44 44 41 38 41 40 39 41 42 46 46 47 48 48 44 40 33 35 36 37 36 37 34 30 31
29 29 32 37 41 39 43 41 41 37 43 39 38 38 41 43 46 45 45 45 42 40 37 36 32 32 33 36 37 37 35 32
31 33 37 40 41 39 35 36 37 46 38 38 40 40 41 45 48 41 42 42 40 37 34 32 31 32 32 32 32 33 31 33
35 37 42 39 34 33 33 35 36 42 43 48 46 45 48 48 42 44 41 40 38 35 31 32 31 31 32 33 33 34 33 34
37 41 38 37 32 28 35 35 37 43 41 48 40 40 38 46 46 49 40 36 38 36 33 31 30 31 30 33 33 31 32 33
40 38 39 35 30 28 28 32 36 40 35 39 34 47 43 42 49 48 38 34 39 37 33 32 31 32 35 35 34 33 34 37
38 36 29 25 25 27 30 30 32 42 45 46 40 45 47 37 47 45 37 35 36 36 33 33 33 33 36 38 38 38 39 39
35 28 24 25 34 29 31 38 43 39 39 43 40 51 42 34 45 46 36 34 36 33 33 35 34 34 37 40 40 40 40 38

GFSFLT1_700_spd_021.txt.gz
Wind_Speed
23 22 20 22 23 24 25 23 25 24 23 22 24 24 27 29 30 30 32 36 36 40 44 44 44 44 46 46 45 42 41 42
27 26 24 26 24 22 22 24 22 20 21 21 23 26 28 24 24 28 32 36 47 46 48 49 51 48 46 45 44 44 44 43
27 27 27 28 23 21 19 15 17 21 24 28 26 25 27 31 33 37 44 46 48 50 50 49 48 49 47 47 47 48 47 44
22 23 21 19 15 14 17 18 19 24 27 27 29 30 31 33 33 35 40 45 48 48 47 49 49 50 48 47 48 48 47 46
27 22 15 14 15 18 20 22 24 26 26 28 31 34 35 37 40 43 43 45 50 49 49 49 47 46 46 47 48 50 51 51
17 14 14 15 17 19 18 25 31 32 32 33 34 35 36 38 42 46 49 48 45 45 46 46 47 48 48 49 51 53 54 53
11 15 18 20 21 25 30 28 25 28 32 36 39 43 45 46 45 43 40 42 45 44 45 47 48 48 49 51 51 51 50 46
13 16 17 21 26 31 33 31 32 30 31 36 40 44 45 44 42 42 45 44 44 44 44 47 48 48 49 50 48 44 37 37
9 13 20 25 30 33 34 37 40 38 39 44 46 45 43 44 46 45 46 45 45 46 48 49 50 50 48 45 40 38 37 37
11 16 24 27 34 36 36 42 44 46 44 51 46 45 44 45 46 45 45 46 46 47 46 47 46 45 40 38 41 42 40 39
16 21 25 30 31 31 38 43 45 47 49 48 43 44 47 46 47 48 46 46 48 46 45 44 42 38 36 38 39 39 36 31
24 28 30 30 32 37 41 41 41 43 43 43 42 44 41 45 47 42 47 45 45 44 46 43 40 39 37 34 34 36 34 33
23 27 30 40 35 42 37 38 40 40 42 43 44 43 47 48 49 47 47 43 47 49 47 41 40 37 35 35 35 35 34 33
30 30 37 40 40 38 42 41 39 40 42 43 45 46 49 44 50 43 42 39 42 45 42 39 38 36 35 34 34 33 32 32
35 36 42 41 41 41 37 36 38 40 41 41 46 45 45 52 54 51 44 41 38 41 40 42 41 36 34 32 31 31 32 33
39 39 38 40 40 38 36 36 37 38 40 41 46 50 49 46 50 48 60 36 36 44 43 42 42 35 30 31 32 33 35 37
35 37 38 38 37 37 36 35 37 37 38 44 50 48 42 45 48 44 38 39 45 39 37 41 39 30 32 35 38 40 40 42
36 35 37 36 32 31 37 40 40 42 46 51 52 43 47 49 51 44 42 27 44 42 34 40 31 33 37 40 43 44 43 40
32 32 27 26 30 37 43 45 49 51 54 48 44 44 44 47 49 40 38 36 45 35 36 32 32 34 37 41 43 42 40 39

GFSFLT1_700_spd_024.txt.gz
Wind_Speed
21 22 21 20 19 19 20 19 18 22 23 19 17 19 23 27 31 33 34 35 37 37 38 44 45 48 50 48 47 46 46 47
26 28 24 22 21 21 22 24 25 20 15 17 19 23 26 29 32 32 34 35 37 39 46 44 47 49 51 52 52 51 50 50
28 25 22 22 21 27 22 22 16 14 16 19 21 23 26 27 29 32 36 38 39 42 44 47 51 52 50 49 49 49 47 48
26 24 25 26 21 14 18 18 18 21 24 27 28 27 27 30 32 34 35 37 41 47 51 51 49 47 47 48 48 48 48 49
19 19 21 17 16 18 18 20 23 25 28 26 24 26 26 27 30 35 38 41 44 45 46 48 50 50 49 49 49 49 49 50
20 19 16 18 22 24 24 24 28 27 28 29 31 34 36 39 42 41 41 41 42 45 47 48 49 51 51 50 51 51 51 52
14 12 14 15 18 17 24 27 30 33 35 35 37 37 41 46 44 43 42 43 46 47 47 48 48 49 49 50 50 50 49 48
16 18 24 24 21 25 31 33 35 38 43 44 44 43 45 49 47 44 46 43 43 45 49 50 50 51 50 49 49 47 45 41
19 16 19 20 25 26 31 33 35 39 46 46 45 45 45 44 44 49 45 44 46 46 48 49 47 47 48 48 47 45 43 41
14 15 18 21 22 25 29 34 39 46 46 43 44 43 43 45 46 44 43 43 45 49 48 43 41 44 47 47 45 42 41 40
15 18 20 23 27 28 33 42 41 42 42 44 42 41 44 46 47 45 44 42 49 48 46 46 44 42 45 44 45 41 37 36
16 22 25 30 31 34 44 45 42 43 42 41 41 44 45 46 48 48 48 49 50 42 47 44 35 35 37 41 42 40 38 35
31 24 27 34 39 42 46 40 42 42 40 40 42 45 47 49 50 51 54 46 47 49 50 34 30 34 35 40 39 35 32 31
24 26 31 37 41 42 41 41 41 40 39 40 43 46 48 49 54 55 52 39 42 45 37 30 32 34 34 39 37 32 30 32
27 30 38 38 39 40 39 40 39 40 41 43 45 46 47 49 57 55 46 42 47 43 41 39 30 33 34 36 36 33 33 35
30 37 39 38 37 39 42 40 42 43 45 45 43 47 52 55 42 45 49 50 46 41 41 32 34 32 34 36 34 34 37 40
36 39 37 37 41 41 40 41 41 43 44 45 50 54 50 43 42 45 47 47 45 42 23 33 28 34 33 35 35 37 41 44
38 36 39 39 38 38 39 39 43 47 49 51 51 42 44 44 44 41 38 36 33 23 27 25 31 31 34 34 38 42 44 42
36 35 36 34 36 37 39 43 46 48 48 42 41 42 43 41 41 36 31 24 20 26 23 23 29 32 33 36 39 42 42 42

GFSFLT1_700_spd_027.txt.gz
Wind_Speed
17 17 17 16 17 19 19 17 18 15 25 21 20 20 22 25 27 29 31 32 34 36 36 39 43 47 50 53 54 54 56 58
21 20 19 15 15 18 19 19 21 23 17 17 20 21 25 26 27 29 30 32 35 38 42 45 49 51 53 56 57 55 52 52
27 23 19 20 21 19 21 21 17 16 17 20 22 24 23 24 26 28 31 35 39 42 45 47 51 52 51 51 52 54 54 55
24 20 19 18 19 18 14 13 13 14 16 19 21 23 24 26 29 29 33 37 40 42 44 46 49 51 52 53 53 53 53 52
11 12 8 9 9 10 12 14 17 20 18 17 18 21 26 29 33 38 41 43 44 45 47 50 51 51 51 51 53 54 55 56
8 7 8 6 8 14 13 16 21 24 27 31 33 36 37 39 40 42 44 46 46 47 51 51 51 52 54 54 53 52 51 51
8 7 9 10 14 16 19 23 27 31 36 39 41 43 41 40 42 45 46 46 48 50 50 50 48 46 48 50 45 43 43 45
12 15 24 21 27 27 25 28 30 33 39 42 42 41 41 43 44 46 46 46 46 45 46 47 47 49 47 44 43 44 45 44
19 30 25 24 28 25 26 29 33 35 42 48 44 43 45 45 45 45 46 45 44 42 43 46 49 45 44 40 39 36 38 40
24 23 23 26 23 24 29 34 39 42 46 48 44 45 44 43 44 45 45 46 46 49 49 42 44 46 49 41 37 35 38 41
21 23 24 24 28 29 31 36 41 44 46 43 42 41 42 43 43 45 49 50 49 52 49 46 46 51 47 28 33 34 36 37
21 24 27 31 29 29 35 42 44 43 41 40 39 41 43 44 46 48 52 54 53 56 54 46 45 45 26 27 33 37 37 36
24 27 28 30 29 35 39 41 41 40 40 39 41 43 45 46 49 51 52 57 60 49 42 41 43 44 33 30 32 35 38 34
28 27 27 29 33 39 41 39 39 38 39 43 44 45 47 47 50 54 59 56 49 48 47 46 43 38 28 33 33 36 35 32
27 28 31 34 38 38 37 38 38 41 43 44 44 46 46 52 56 55 49 46 44 43 40 38 32 33 32 34 36 37 34 34
28 31 36 38 38 37 37 39 42 43 43 44 46 49 51 51 49 48 43 41 39 35 30 20 22 26 30 33 36 33 34 37
34 34 37 38 39 37 38 41 42 42 43 45 47 48 46 46 45 42 39 37 33 26 17 22 25 25 30 29 31 33 37 41
34 40 39 38 36 37 39 41 41 43 46 47 46 46 45 45 42 39 37 33 27 22 25 26 24 27 29 32 33 36 39 42
41 39 36 34 35 38 39 40 43 45 47 46 47 46 45 42 38 37 35 31 27 26 24 24 26 28 30 32 34 36 38 41

GFSFLT1_700_spd_030.txt.gz
Wind_Speed
14 13 15 12 13 17 24 28 26 24 18 15 16 15 18 21 24 26 27 29 30 31 37 41 44 48 50 52 54 55 58 59
18 18 17 17 17 18 20 22 20 19 20 18 14 15 19 23 27 28 30 31 34 37 41 44 48 50 52 52 52 53 56 58
23 22 20 21 16 13 13 16 16 13 11 15 20 23 24 24 25 28 32 36 39 41 44 46 48 49 51 53 56 56 56 57
22 18 12 14 16 14 11 9 11 14 17 19 19 21 22 26 28 30 33 36 39 42 46 49 51 52 53 54 54 55 55 53
9 6 8 9 4 4 8 10 11 12 15 20 27 30 33 36 36 36 38 41 44 46 47 49 50 51 52 53 55 56 56 54
6 5 8 5 1 8 12 15 20 23 26 28 35 35 39 41 38 40 42 44 45 46 48 50 52 54 55 54 54 52 49 46
15 11 5 6 17 22 23 22 23 26 28 32 35 39 43 39 39 41 42 44 45 47 49 50 49 49 50 48 48 47 44 44
11 12 17 28 19 16 20 23 26 27 32 36 39 42 40 38 40 42 43 45 47 48 48 49 49 51 50 52 46 45 46 45
16 26 29 26 19 22 25 28 29 31 35 40 42 41 40 41 43 46 48 49 49 50 51 53 53 55 52 45 43 45 37 33
26 24 20 23 26 27 28 30 29 32 38 42 40 41 43 44 47 48 48 49 52 54 55 55 54 38 37 41 43 26 27 30
21 21 22 24 27 29 33 34 30 35 42 41 40 41 42 44 45 48 50 52 54 54 56 50 45 41 44 42 37 34 29 33
20 22 25 26 29 33 31 31 32 38 38 38 39 40 42 44 47 48 50 53 56 53 49 47 45 42 41 38 38 32 29 32
24 25 27 28 32 29 33 37 40 34 37 37 39 41 44 45 48 52 55 55 51 49 44 41 39 37 34 31 34 28 33 35
25 26 26 28 31 36 39 36 33 34 36 38 41 43 45 49 51 52 51 50 48 43 38 37 34 29 22 27 32 31 36 38
25 26 28 33 37 37 35 34 34 36 39 42 44 47 49 50 50 50 48 46 43 37 34 30 28 18 26 25 29 31 33 33
27 28 30 35 35 35 34 36 37 39 42 44 46 49 49 49 49 48 45 41 37 35 30 26 20 26 29 26 27 27 30 33
27 29 34 35 33 34 35 36 38 40 43 46 48 48 48 49 48 46 41 38 35 32 29 26 27 25 25 26 28 30 32 36
28 32 36 34 34 34 34 36 39 42 45 46 46 47 47 47 45 42 40 35 34 32 29 25 24 24 25 27 28 30 33 35
30 34 35 35 32 32 35 38 40 43 44 44 45 46 44 42 41 39 37 33 31 29 25 22 22 24 26 27 29 31 33 36

GFSFLT1_700_spd_033.txt.gz
Wind_Speed
12 14 15 16 16 17 21 24 27 26 17 10 7 5 9 15 19 23 25 27 29 32 36 39 41 43 45 48 50 51 53 55
16 17 18 19 19 22 27 17 20 14 6 6 10 11 15 17 19 20 24 29 33 36 39 41 44 47 48 49 50 52 53 54
19 19 20 21 22 24 9 10 8 7 10 11 10 11 14 18 22 26 29 31 32 34 37 40 43 47 50 50 51 53 54 55
22 17 11 10 13 15 7 7 12 12 10 9 13 18 22 26 30 33 31 31 33 37 41 43 45 46 47 49 51 52 53 52
10 9 8 10 9 6 4 5 10 16 16 16 20 24 28 32 35 36 34 36 39 41 43 44 46 48 49 50 49 48 47 47
9 8 8 7 7 2 12 22 27 21 22 23 25 29 32 36 38 36 36 39 40 43 44 46 47 48 48 48 49 50 47 44
11 5 6 5 8 15 27 18 14 18 23 25 28 32 36 38 37 37 38 40 42 44 46 47 47 48 51 51 50 44 39 44
11 6 7 13 21 15 17 17 18 23 26 27 30 34 37 37 38 39 41 45 46 47 47 49 51 52 51 49 47 38 40 43
8 11 14 13 12 15 19 20 24 26 30 28 32 36 37 37 40 43 45 47 47 48 50 51 52 51 48 45 41 37 40 34
13 13 15 15 19 19 21 23 26 30 29 31 35 38 38 39 42 44 46 47 49 50 50 50 49 47 42 39 37 33 32 31
14 17 18 20 22 23 24 25 27 33 34 38 37 36 38 41 43 44 46 48 49 49 49 48 45 40 37 37 33 32 30 31
18 21 23 24 25 25 27 28 33 37 39 35 35 38 40 42 43 45 46 48 49 49 49 45 40 35 32 33 29 27 25 28
23 25 25 25 28 30 30 37 40 38 32 36 37 38 40 42 43 45 47 49 49 49 46 40 36 33 29 27 22 28 28 28
26 26 26 26 28 29 34 38 37 31 32 34 37 39 40 43 45 46 47 48 47 44 40 36 33 30 27 21 25 27 26 29
25 26 25 26 30 32 35 36 32 32 33 36 38 40 43 44 46 46 46 46 44 40 36 32 29 26 24 23 26 24 26 27
26 26 27 28 30 35 34 32 33 33 34 37 39 42 44 45 45 45 44 44 41 37 33 31 30 27 25 23 24 25 26 28
27 27 26 30 32 34 33 32 32 33 35 38 41 42 43 44 44 43 43 42 39 35 32 30 28 24 22 22 24 24 26 30
26 25 29 29 33 30 31 31 32 34 36 39 41 42 42 43 43 43 42 40 36 34 31 28 24 22 22 23 23 24 27 31
24 26 29 31 33 33 30 31 33 35 37 39 41 42 42 42 41 41 39 38 35 33 29 26 24 22 23 23 22 24 28 31

GFSFLT1_700_spd_036.txt.gz
Wind_Speed
15 17 19 18 20 21 21 24 27 30 31 14 5 7 6 9 12 17 21 24 27 30 31 34 36 39 41 42 44 46 48 48
17 19 19 19 21 22 23 26 24 25 14 9 2 3 6 8 12 16 20 25 27 29 32 34 36 39 41 42 43 46 47 50
16 17 18 21 23 25 24 15 9 5 5 7 4 7 8 10 14 19 24 28 28 30 32 35 38 40 43 44 45 46 47 52
19 19 20 21 20 17 15 6 2 3 10 15 12 10 13 16 20 25 28 30 33 34 36 37 40 41 43 45 46 47 47 45
19 17 14 12 12 12 3 2 12 17 16 13 12 16 20 23 27 31 33 34 36 37 38 40 42 42 43 44 46 45 46 45
15 13 12 10 11 10 8 11 21 16 13 15 19 21 24 27 31 34 34 36 37 38 39 41 43 44 45 47 47 47 45 43
13 14 12 9 7 11 16 19 15 15 17 21 23 27 27 31 34 36 37 38 38 41 43 44 46 46 48 43 41 41 33 27
15 13 6 6 11 13 9 11 16 19 21 24 29 29 32 34 38 36 37 38 41 43 45 46 46 46 47 42 27 28 27 29
15 10 9 11 12 11 13 16 18 22 25 28 29 32 34 37 35 37 39 41 43 44 45 46 46 47 46 44 27 27 29 29
15 13 13 12 14 16 18 21 24 26 30 32 29 33 37 35 35 38 40 42 44 45 46 46 47 46 44 38 25 30 31 32
18 16 16 16 18 20 23 25 28 33 31 35 38 37 34 34 37 39 41 42 43 45 45 45 44 42 38 33 27 25 27 28
21 19 18 21 23 25 26 28 30 33 36 41 39 33 33 35 37 39 41 42 43 44 44 44 43 39 34 31 29 26 31 27
24 23 23 25 27 28 29 32 37 36 36 40 32 31 33 35 37 39 41 43 44 44 44 43 40 35 31 30 28 27 25 30
26 26 28 30 31 30 34 38 35 36 37 30 30 33 34 36 38 40 42 43 43 43 43 41 38 33 30 28 26 23 28 26
29 31 32 33 33 35 37 34 34 34 29 31 32 34 35 38 40 41 42 42 42 42 41 39 35 31 29 26 25 24 24 25
28 31 32 33 34 35 34 33 32 31 30 30 32 35 37 40 41 41 41 40 41 41 40 37 33 30 27 23 21 22 24 25
26 30 31 33 33 35 33 31 32 31 30 30 33 36 38 39 39 40 40 40 40 39 38 36 32 29 26 23 21 23 23 25
24 28 30 31 34 34 31 32 28 28 28 31 34 36 38 38 39 39 40 39 39 38 36 34 30 29 25 23 22 22 22 24
24 26 28 31 34 33 33 30 26 26 29 32 35 37 38 38 39 39 39 38 37 36 34 32 29 27 24 22 22 21 22 24

GFSFLT1_700_spd_039.txt.gz
Wind_Speed
21 23 23 17 20 14 16 19 22 24 27 23 28 32 20 10 18 19 19 18 20 25 27 28 30 33 35 39 40 41 43 46
20 21 23 24 25 17 20 21 25 24 21 11 6 5 4 13 13 14 16 19 23 25 28 31 32 37 40 41 43 43 44 44
22 23 23 23 24 22 23 21 21 11 6 5 6 4 8 12 15 16 20 23 26 28 28 31 36 36 39 42 43 44 44 45
23 23 23 23 23 22 20 16 12 8 9 11 12 10 12 16 17 20 23 25 28 30 32 33 36 39 40 43 44 45 46 45
24 23 23 21 20 17 15 12 10 9 10 12 11 11 14 19 22 26 28 29 32 33 36 38 39 40 42 43 42 43 44 43
22 22 19 17 16 14 13 10 13 15 12 11 12 16 20 21 23 29 31 36 36 37 38 40 39 41 42 43 44 45 42 39
22 19 18 18 14 12 12 15 17 14 14 16 17 19 22 26 27 31 34 32 34 37 39 41 43 43 43 43 44 44 32 30
21 20 19 15 13 12 15 15 16 16 18 20 22 24 26 30 25 34 32 33 36 38 40 41 42 43 44 44 43 39 30 31
20 19 18 16 14 15 17 18 20 20 21 24 27 30 35 30 35 32 33 35 37 39 41 43 44 44 43 43 42 36 29 29
20 20 19 18 17 18 18 22 24 23 25 29 30 35 35 40 37 34 36 37 38 40 41 42 42 43 42 41 38 29 25 30
20 21 20 21 21 21 22 25 29 28 30 32 35 36 37 41 35 34 35 37 38 40 41 42 42 42 41 38 33 30 29 28
21 24 24 24 25 25 26 29 32 32 34 37 38 35 38 34 32 34 36 37 39 40 41 42 42 41 39 37 34 29 29 31
22 24 29 28 28 29 31 33 35 36 39 41 38 34 32 33 33 35 36 38 39 41 42 42 41 40 39 37 32 30 30 29
24 27 31 31 32 33 35 35 37 37 42 42 35 33 32 32 34 35 37 39 40 41 42 42 42 41 38 34 32 31 29 28
26 30 31 33 35 37 38 38 37 40 42 33 30 33 33 32 34 36 38 39 41 42 41 41 40 39 37 34 31 28 26 25
30 32 34 36 38 39 40 38 38 40 40 30 31 32 30 32 35 38 39 40 41 42 41 40 39 38 37 30 28 26 26 26
26 28 32 36 40 39 38 38 39 42 37 33 29 28 29 33 37 38 39 41 41 41 40 38 37 36 35 29 27 26 25 25
24 26 30 35 37 37 37 38 43 41 34 31 28 28 29 35 36 37 39 40 40 40 38 35 35 35 32 28 26 25 24 25
21 26 30 33 35 37 37 43 43 39 33 27 26 28 31 35 37 39 40 39 39 38 38 35 34 33 31 26 26 24 23 24

GFSFLT1_700_spd_042.txt.gz
Wind_Speed
17 15 16 14 12 8 14 15 14 17 20 20 16 14 7 14 13 19 18 20 22 23 23 24 27 30 32 35 37 38 39 41
25 21 21 20 17 10 14 16 18 21 22 18 9 9 13 8 10 11 16 18 20 23 27 28 28 32 36 39 40 41 41 42
24 19 24 25 24 19 19 21 21 23 15 9 9 11 9 8 11 14 18 21 23 27 26 30 33 34 35 38 39 40 41 41
25 22 25 28 30 21 22 23 22 17 13 11 12 12 12 12 12 16 20 21 25 27 30 30 32 35 36 36 38 41 43 42
31 30 29 30 29 26 25 25 18 16 15 15 13 13 15 18 19 21 20 22 25 30 31 33 34 34 35 37 38 40 41 41
28 28 28 28 26 27 24 18 16 14 17 16 12 15 16 18 19 25 30 28 35 32 35 37 38 39 40 41 41 41 41 42
26 25 26 25 22 20 18 15 16 15 16 16 15 18 22 22 26 30 25 31 30 31 35 37 37 39 40 39 39 38 38 39
26 29 31 22 19 19 16 15 20 17 16 18 19 22 23 27 28 32 37 34 31 33 35 35 36 38 40 40 40 40 39 39
26 25 22 20 18 17 16 19 22 20 21 21 24 26 27 28 30 34 32 32 31 34 35 36 38 40 40 39 39 39 38 35
21 22 23 21 20 19 18 22 24 23 24 26 28 28 31 33 36 37 28 30 32 34 36 37 38 39 40 41 40 39 37 34
20 22 24 23 22 24 22 25 27 26 27 29 31 34 36 36 41 36 30 32 31 34 37 39 39 40 42 41 40 38 36 34
19 23 25 26 26 28 25 26 30 32 32 32 35 38 39 43 42 32 31 30 33 36 39 40 40 41 41 40 40 37 35 33
21 22 26 27 29 32 30 28 33 34 34 36 38 43 40 44 39 32 31 31 35 37 39 41 42 43 40 38 38 36 34 30
22 25 28 28 31 34 34 33 35 38 37 36 39 42 42 47 33 32 31 33 36 38 39 40 41 41 41 39 36 35 32 29
22 27 27 30 35 35 35 37 36 39 36 36 39 47 40 42 30 30 30 33 36 37 39 40 40 40 40 37 33 32 31 30
20 27 29 34 40 36 37 39 40 37 36 36 41 42 44 32 29 28 29 32 35 37 39 43 43 40 39 32 31 31 31 30
28 29 34 38 34 34 38 41 41 38 35 39 43 44 34 28 26 27 30 32 36 38 39 40 37 36 36 31 30 30 29 28
22 28 27 27 30 36 38 40 43 38 38 43 45 39 34 24 27 31 28 33 36 38 38 39 34 33 33 31 30 29 28 27
19 23 23 25 30 36 39 41 41 41 41 43 45 34 29 28 26 25 30 35 38 37 36 37 34 32 33 32 30 28 28 27

GFSFLT1_700_spd_045.txt.gz
Wind_Speed
6 6 5 2 6 4 5 6 6 6 10 14 14 14 14 10 14 17 24 24 25 22 21 22 26 29 31 33 35 37 38 37
8 11 9 6 3 5 6 8 10 13 17 19 16 11 10 12 12 12 14 16 20 23 24 25 27 30 32 34 37 38 36 35
16 19 18 13 11 12 12 12 14 19 21 18 12 11 13 12 9 12 13 17 21 23 24 25 28 29 31 34 36 36 36 36
23 25 27 24 22 19 16 17 20 23 23 15 14 14 15 12 13 15 16 19 22 20 21 27 29 28 31 32 33 35 38 37
23 20 22 23 26 27 20 23 24 26 19 15 16 16 16 16 18 18 20 20 24 23 29 28 27 29 31 32 34 35 38 40
26 25 27 29 30 31 26 27 28 25 17 14 17 19 20 20 20 21 22 24 25 28 34 31 31 32 33 35 36 37 37 39
26 28 31 33 31 28 30 31 26 20 17 16 18 20 21 22 24 24 26 29 35 38 39 34 34 35 36 37 37 38 38 39
31 33 32 32 29 24 26 25 24 20 17 16 18 21 22 24 25 25 28 33 37 37 29 30 32 33 34 36 38 39 39 40
34 37 39 34 31 27 25 25 23 17 16 19 21 22 24 25 29 31 38 37 35 38 26 29 32 33 34 36 36 38 38 39
33 36 36 30 27 21 20 20 23 21 21 20 23 24 24 27 35 32 40 34 45 36 28 30 31 31 35 36 37 38 39 40
26 28 26 24 20 16 19 24 27 26 26 26 26 26 29 30 42 36 42 37 44 38 28 29 31 33 35 37 39 38 38 37
15 18 21 21 21 20 23 28 32 33 32 30 31 31 34 34 36 44 45 44 28 27 28 30 33 35 35 36 38 39 38 35
14 16 19 22 24 24 24 29 31 32 34 36 37 36 37 39 39 48 49 35 25 27 28 31 34 36 37 39 39 38 37 34
20 21 24 26 28 28 25 26 28 32 36 40 38 39 42 46 47 41 47 35 27 27 30 32 35 37 38 39 39 37 35 33
20 23 26 29 31 28 26 29 33 36 41 38 37 41 43 43 39 51 34 28 27 30 32 32 35 39 40 37 34 35 33 31
17 22 25 29 30 32 33 35 38 41 40 38 40 42 43 45 48 35 32 24 29 29 28 30 36 39 38 33 32 32 33 31
16 21 25 28 29 34 34 36 39 39 37 40 43 43 44 43 38 32 23 29 27 26 29 33 36 36 34 32 30 31 31 31
21 20 23 28 34 34 34 31 35 39 42 44 47 45 51 43 41 31 29 24 25 25 28 33 34 32 32 30 29 30 30 29
17 19 24 26 30 31 33 35 38 41 44 48 46 48 48 46 43 26 23 22 23 27 33 35 32 32 31 31 30 30 30 28

GFSFLT1_700_spd_048.txt.gz
Wind_Speed
4 4 7 8 11 10 7 6 4 2 3 5 9 12 13 15 15 17 20 20 21 24 23 22 26 26 29 33 33 32 35 39
8 6 7 12 14 11 9 8 7 8 9 11 13 16 14 14 15 18 18 16 17 17 20 24 28 29 29 32 33 34 37 37
15 13 11 8 9 11 11 9 10 11 13 16 17 16 15 16 16 17 16 16 18 21 25 30 27 25 29 29 32 36 36 35
16 17 13 13 12 13 14 14 15 16 18 20 19 16 15 15 17 15 17 19 21 25 25 28 25 27 27 29 33 35 34 33
18 18 16 13 14 16 17 20 19 19 23 20 19 16 18 19 17 17 19 21 22 24 25 25 29 36 33 31 33 34 35 35
23 22 21 21 21 20 20 21 26 24 25 22 19 17 19 19 18 18 19 21 28 29 30 29 31 35 33 34 34 34 36 35
28 26 26 25 26 25 21 26 28 28 28 23 19 20 19 18 18 20 24 30 32 33 35 37 44 38 38 36 36 38 38 37
34 31 29 29 28 26 30 27 23 27 27 21 20 20 18 18 22 25 29 32 36 29 38 37 37 36 32 34 37 39 40 39
24 26 25 26 28 30 26 24 26 24 22 20 21 20 19 22 25 28 34 32 39 32 46 42 45 35 32 35 38 40 40 39
30 25 26 28 30 26 26 30 30 25 25 25 22 21 23 28 32 35 33 38 33 43 49 47 44 30 32 35 38 39 37 38
23 26 29 31 24 27 31 30 25 26 25 27 26 28 30 33 32 33 37 37 47 47 49 49 39 31 32 35 37 38 37 38
20 20 24 28 29 27 25 24 24 23 26 32 32 33 36 37 38 40 34 39 46 54 42 48 31 34 34 34 35 38 39 37
7 9 10 12 14 16 17 20 21 23 27 31 34 32 37 38 47 46 41 45 55 47 42 38 32 34 32 32 34 38 37 36
13 17 18 18 19 17 18 23 26 27 28 29 26 33 40 40 42 42 46 57 50 56 48 34 33 35 32 32 35 38 39 37
17 20 22 21 21 22 25 29 30 27 30 29 30 36 33 39 42 50 53 51 56 46 36 34 37 34 29 31 35 37 36 37
17 19 21 24 25 27 28 31 31 28 27 32 35 37 40 42 45 50 49 54 47 39 35 39 38 30 27 33 36 36 36 35
17 20 23 24 25 27 28 31 29 28 30 32 36 39 43 48 50 52 54 50 45 41 39 32 23 26 30 35 37 35 34 34
16 19 20 20 18 22 26 28 31 34 36 37 39 43 46 49 53 58 60 48 39 39 24 24 25 29 32 33 34 34 34 33
17 17 18 19 21 24 28 32 34 34 35 39 40 43 48 54 59 50 34 41 29 23 24 24 30 31 31 32 34 34 33 33

GFSFLT1_700_spd_051.txt.gz
Wind_Speed
13 11 12 15 17 17 16 14 12 11 10 7 4 5 7 10 12 15 17 21 23 25 23 22 20 22 25 29 33 33 36 36
9 8 10 13 12 11 9 9 7 6 4 4 6 8 11 12 15 17 18 20 21 21 21 21 23 27 30 34 33 35 36 35
10 12 12 14 12 10 9 8 8 8 8 10 11 12 14 16 16 15 18 19 20 21 22 23 27 31 33 36 35 37 37 37
3 5 5 8 10 8 9 9 10 12 13 15 14 14 17 16 16 17 19 18 20 21 22 24 29 30 31 31 38 42 39 37
7 5 3 3 1 5 10 11 14 17 20 20 19 17 18 15 19 21 18 18 19 22 26 28 27 29 32 37 40 36 36 42
14 12 8 9 10 11 11 14 17 17 22 24 22 22 17 19 19 20 19 20 23 25 26 32 33 27 32 37 38 37 41 39
20 18 18 16 17 16 18 19 19 20 20 21 26 24 19 18 19 18 21 24 26 31 34 38 42 32 38 43 43 42 40 40
25 25 24 22 20 22 20 22 22 22 19 22 24 20 19 18 19 22 27 31 33 35 36 38 41 42 47 51 48 48 42 41
26 25 25 20 23 24 28 24 24 21 23 25 18 18 20 21 22 26 29 33 38 38 40 47 42 43 45 48 45 45 38 40
19 19 21 19 22 23 27 26 25 25 29 26 22 22 26 25 26 28 32 36 36 37 37 37 40 47 52 47 45 37 39 44
20 21 22 19 17 19 24 25 26 29 30 26 25 29 28 29 29 35 35 38 41 42 42 40 51 54 50 54 41 39 43 43
19 19 19 17 14 19 23 27 28 29 25 22 22 24 26 32 33 31 37 39 47 37 44 43 50 50 58 51 40 42 47 47
6 3 5 6 9 12 15 19 17 18 20 19 20 27 23 25 29 33 40 42 44 43 46 46 47 53 58 47 45 48 46 39
7 8 10 11 13 15 16 17 18 22 22 23 26 29 28 24 30 33 34 40 42 48 47 52 54 58 51 45 42 39 33 35
14 16 17 18 20 22 24 24 26 26 27 28 28 26 28 32 32 33 39 43 48 54 46 57 55 42 44 39 31 31 33 36
18 18 19 21 24 25 27 28 27 30 31 31 26 27 31 32 33 37 44 46 47 53 56 43 40 40 30 29 31 33 37 38
21 20 21 22 26 26 26 27 29 30 31 30 31 32 32 35 37 44 47 49 54 45 32 39 39 29 28 27 33 35 37 38
18 18 20 21 21 21 21 21 25 26 29 31 29 31 34 37 43 50 54 46 39 37 43 33 28 25 27 31 34 36 37 38
16 15 16 17 18 18 18 22 23 25 27 28 30 32 36 44 44 49 48 39 42 38 28 28 26 27 30 33 35 36 38 38

GFSFLT1_700_spd_054.txt.gz
Wind_Speed
12 14 16 17 18 18 18 17 16 15 14 12 10 7 5 7 10 12 14 15 16 19 21 21 20 18 20 23 28 33 35 36
13 14 18 19 18 18 17 16 14 13 10 7 6 4 5 7 9 13 15 15 16 19 20 20 20 21 23 27 31 35 38 37
15 14 15 17 16 14 13 11 10 11 9 8 8 8 8 10 11 12 14 15 17 19 20 21 22 24 26 30 33 35 33 35
13 12 11 14 12 9 7 7 8 9 10 11 11 11 10 11 12 12 13 16 19 20 21 22 25 27 28 32 34 36 40 39
12 13 11 8 10 11 9 10 10 11 13 14 17 16 15 14 15 14 16 20 20 21 23 25 24 26 28 33 35 28 36 38
11 7 7 8 11 8 6 9 12 12 14 15 17 19 19 19 21 18 18 21 22 24 25 28 32 34 36 39 44 51 48 49
17 14 13 13 12 10 10 12 15 17 17 17 14 15 21 24 25 21 20 23 24 28 31 33 36 39 39 46 37 40 46 50
21 20 15 14 13 13 14 11 15 19 19 18 15 17 21 27 24 21 24 25 28 30 33 36 40 41 40 40 42 48 48 52
24 19 17 14 17 15 16 16 18 22 21 20 17 20 22 21 21 23 25 27 28 32 35 43 38 36 41 41 44 51 47 52
13 17 18 16 15 14 16 18 21 23 23 23 21 24 22 19 22 26 28 29 32 39 40 46 43 36 33 45 46 51 49 47
8 12 12 10 12 17 21 21 21 24 24 24 25 23 19 23 25 28 31 31 32 36 41 38 38 43 46 46 47 50 47 41
5 8 10 13 13 15 16 18 21 24 23 23 24 21 20 21 24 26 25 26 26 36 39 34 40 41 45 49 51 39 41 44
3 4 4 4 6 9 11 12 15 20 20 21 22 24 23 23 24 26 25 26 29 26 36 37 43 44 51 46 38 42 43 38
7 6 7 8 9 9 12 16 17 19 22 24 24 23 24 23 23 25 28 29 29 40 33 43 45 44 46 39 43 41 33 32
15 14 13 13 14 16 19 22 23 25 26 28 29 29 29 20 24 28 31 33 41 30 42 41 47 41 39 41 37 31 31 32
18 18 17 18 19 21 24 26 27 28 28 29 29 29 31 28 26 30 36 36 41 44 45 48 39 42 42 35 32 32 32 35
21 21 22 23 24 25 25 28 27 26 28 27 27 26 27 33 30 38 39 43 46 49 41 39 44 40 33 32 31 32 35 36
19 18 18 19 22 23 23 23 24 24 24 25 25 26 29 30 33 35 39 38 46 46 40 43 37 34 32 30 33 36 37 37
15 17 20 21 22 22 22 22 23 25 24 21 23 26 29 32 37 43 46 44 38 36 42 37 34 31 32 35 36 38 39 39

GFSFLT1_700_spd_057.txt.gz
Wind_Speed
11 15 16 17 17 17 17 18 19 20 20 19 18 17 16 14 14 14 13 12 13 15 16 18 17 16 17 18 20 23 25 28
10 13 17 17 18 19 19 19 19 18 17 15 13 10 9 10 12 14 13 13 14 15 17 18 17 18 18 20 22 25 26 30
14 17 18 16 16 16 17 17 16 16 15 13 12 11 10 10 10 10 14 13 15 16 18 19 20 20 21 23 26 29 32 34
16 16 17 17 15 12 12 12 13 14 14 13 11 11 10 9 9 11 12 17 18 17 19 21 22 22 24 25 29 31 32 35
18 16 15 14 14 15 14 13 13 14 14 14 11 13 14 14 15 17 19 19 18 19 20 23 24 24 27 32 34 35 42 43
17 17 17 16 18 16 14 13 13 13 14 15 15 13 16 18 20 21 22 23 21 21 24 26 27 29 31 33 36 40 43 45
19 17 17 18 21 22 19 16 15 15 16 18 18 17 14 16 20 23 25 27 26 24 26 29 30 31 33 39 44 33 37 35
24 23 22 22 21 19 18 17 11 13 18 19 19 18 18 18 20 24 29 30 27 27 29 31 31 33 36 43 47 37 39 48
18 23 23 19 17 17 17 15 19 14 17 19 22 22 18 22 21 23 26 25 27 28 27 29 28 34 39 36 37 36 46 43
15 18 21 20 18 16 16 19 22 19 21 21 23 26 22 25 21 22 25 26 27 26 27 26 30 32 33 33 35 39 42 47
11 14 18 18 18 16 19 21 22 24 23 25 27 24 25 23 22 24 23 22 24 25 28 25 32 36 37 39 38 36 40 44
7 12 14 14 17 19 20 22 24 24 23 25 28 26 24 22 21 22 24 25 29 15 27 31 39 29 27 32 37 42 42 39
5 4 6 6 6 7 8 10 13 16 18 21 24 25 22 21 21 25 26 31 28 18 26 33 30 34 37 42 41 37 39 38
9 5 4 6 8 9 10 10 13 15 16 19 21 23 28 29 30 25 29 39 26 27 36 27 42 34 34 39 34 38 36 34
15 14 14 12 11 10 11 15 19 20 21 21 25 26 27 27 26 26 25 28 28 36 38 36 34 45 40 34 40 36 34 33
19 20 20 19 18 17 18 21 23 24 25 25 26 26 28 27 29 30 35 25 31 42 34 39 47 40 37 40 35 33 33 33
18 19 23 24 24 25 24 26 27 29 31 30 30 30 28 28 28 33 25 32 37 36 34 38 39 36 41 35 33 32 33 35
23 22 23 22 21 22 22 23 24 25 25 26 26 28 30 28 23 28 36 34 36 40 31 33 42 39 35 33 31 35 37 39
16 16 16 17 18 20 21 23 24 25 27 29 30 28 23 25 29 30 35 37 34 30 40 42 37 32 33 32 34 38 41 42

GFSFLT1_700_spd_060.txt.gz
Wind_Speed
12 14 17 18 17 18 19 18 18 20 23 23 23 23 23 22 21 20 18 17 16 15 15 14 17 17 14 14 15 17 20 21
10 14 16 16 18 18 18 20 22 23 23 23 22 20 18 15 16 17 19 19 17 17 15 17 19 18 17 17 19 21 22 22
13 14 16 17 17 17 18 17 17 16 16 16 16 15 15 16 17 16 17 17 18 18 19 20 20 20 19 20 21 23 24 26
15 18 18 18 18 18 18 17 17 17 17 18 18 18 17 16 15 13 16 18 19 22 22 21 21 22 21 22 23 25 30 31
17 18 19 19 19 19 19 19 19 19 20 20 19 18 17 16 16 16 17 20 22 23 24 22 24 24 23 25 27 30 31 37
18 19 19 21 23 22 21 19 20 20 20 20 20 20 19 20 21 23 24 24 26 26 26 28 27 26 27 29 30 33 32 36
20 22 23 21 23 24 23 21 20 19 18 19 19 20 22 21 23 25 28 28 30 30 30 31 29 30 29 30 30 35 38 34
26 24 22 24 25 24 24 22 19 18 17 18 19 21 22 28 23 24 27 28 30 30 33 32 31 31 29 30 28 32 32 33
32 29 26 23 22 23 23 21 22 22 17 18 18 22 27 28 26 22 27 31 32 30 31 30 31 31 33 26 28 35 31 36
27 31 32 29 28 26 24 24 25 26 25 23 24 27 29 30 24 24 30 33 31 37 32 31 35 33 27 27 38 37 34 39
17 25 28 30 31 30 29 27 27 28 28 29 30 30 31 31 28 27 31 31 28 32 30 31 34 29 32 31 35 35 37 29
6 16 21 25 28 29 28 26 27 30 32 32 30 29 31 32 30 29 30 34 29 34 36 42 15 24 35 34 36 31 35 35
4 4 16 20 23 28 30 31 30 29 29 30 30 30 30 29 30 31 36 27 29 36 38 32 22 28 31 30 34 36 38 39
8 7 8 12 16 17 15 17 17 18 18 18 20 22 23 24 26 30 27 33 31 25 44 32 27 29 32 31 29 42 42 39
14 13 15 15 15 14 15 15 17 18 19 21 23 24 26 27 28 28 28 28 33 30 28 26 33 34 36 33 41 36 39 41
17 19 21 22 21 20 19 20 22 24 25 26 28 29 29 31 30 30 29 29 33 32 28 30 37 40 34 32 37 38 36 37
20 21 20 25 26 26 25 26 25 26 28 30 32 31 32 32 31 30 28 29 31 28 28 33 34 34 33 40 38 35 34 36
25 25 24 23 26 27 26 25 23 24 26 27 27 28 27 28 30 30 26 24 30 32 30 30 31 37 35 32 31 33 35 37
22 22 20 18 17 17 19 21 23 25 26 26 27 28 29 30 26 25 24 25 26 30 29 33 36 33 32 32 33 36 39 40

GFSFLT1_700_spd_063.txt.gz
Wind_Speed
9 8 8 13 17 19 18 18 17 19 20 20 20 20 21 22 21 22 19 19 20 20 19 19 19 18 17 15 16 16 17 17
10 10 13 13 17 19 16 13 14 17 19 20 20 20 21 22 21 21 21 21 21 23 22 21 21 20 19 17 17 18 19 19
14 12 13 13 14 16 18 18 18 18 16 17 18 19 19 19 21 22 20 21 22 23 24 24 23 24 23 20 19 20 23 22
17 14 14 15 16 17 17 16 17 17 17 18 18 19 19 20 20 21 21 21 22 24 25 27 25 30 27 23 21 23 27 27
19 15 16 17 18 18 19 18 17 17 18 19 20 20 19 19 20 20 19 23 24 27 28 28 27 30 30 27 26 27 27 34
22 18 16 18 18 18 18 19 20 21 21 22 21 22 21 21 22 25 23 26 25 27 31 29 31 33 34 32 30 29 31 29
22 22 20 22 24 23 23 23 22 22 22 22 22 21 23 24 26 23 27 30 33 32 34 34 34 35 37 36 33 35 32 30
24 25 26 24 24 25 26 25 24 23 22 21 21 21 23 25 28 30 32 30 32 29 34 35 37 34 37 37 33 36 32 33
26 28 27 26 26 27 27 27 26 25 22 21 23 21 20 25 30 33 26 28 26 28 34 38 40 40 38 31 34 35 37 31
21 27 30 29 29 28 26 28 28 28 24 25 23 24 26 29 34 33 30 28 26 32 32 38 42 43 33 33 34 35 34 34
11 19 28 32 31 30 30 28 28 27 28 28 29 31 30 32 36 36 33 32 31 34 34 44 46 28 29 33 23 28 35 34
5 12 20 26 27 30 35 33 30 29 30 32 31 30 31 32 32 33 34 33 34 34 36 37 35 32 35 32 29 29 32 36
6 7 12 15 25 30 35 36 33 30 29 30 34 32 32 31 30 31 32 32 30 35 32 32 27 33 32 35 30 37 40 36
7 8 10 14 18 19 21 24 24 26 30 34 32 27 24 25 27 29 29 30 31 31 29 33 31 29 37 37 28 36 43 37
10 11 12 14 15 18 22 22 23 24 26 26 23 24 25 26 28 30 31 31 32 33 31 32 32 30 30 33 35 36 34 39
17 16 19 20 23 24 24 25 25 25 26 25 25 27 27 29 31 33 32 32 33 30 31 32 33 30 30 30 30 33 38 43
18 19 23 26 24 28 30 28 27 27 27 28 29 30 32 33 34 33 33 31 28 30 33 32 32 33 29 32 34 39 36 35
23 26 29 31 30 28 33 32 31 30 32 33 32 31 30 30 30 30 31 33 32 30 32 32 30 30 31 34 35 35 35 35
29 27 25 25 24 23 23 23 22 22 23 24 26 27 29 30 31 31 31 31 32 31 30 28 28 32 31 31 33 34 36 38

GFSFLT1_700_spd_066.txt.gz
Wind_Speed
6 9 6 11 19 20 23 26 26 20 27 31 32 28 28 27 26 24 22 19 17 17 16 18 16 18 18 17 15 15 16 16
8 3 10 12 14 16 15 18 20 23 24 24 24 24 24 24 24 21 20 20 20 19 20 20 19 21 20 21 21 19 19 19
13 10 7 11 15 17 14 13 16 17 17 17 17 18 19 18 18 19 18 18 19 18 21 22 20 23 25 25 25 25 23 22
18 10 12 11 14 15 15 16 15 16 15 17 17 18 19 20 20 20 18 18 20 20 22 24 24 25 31 29 27 30 29 29
17 11 11 12 12 13 13 12 13 15 15 17 19 19 19 16 16 17 19 16 19 20 23 25 28 26 31 33 30 32 34 35
18 9 9 12 14 15 15 15 16 18 18 18 18 18 16 16 16 18 21 17 21 22 25 27 29 30 33 36 38 36 37 36
20 16 12 14 16 17 19 20 20 19 17 18 17 15 18 20 20 22 23 22 22 25 31 32 36 38 33 35 36 37 41 41
21 24 21 19 19 18 18 18 18 19 18 17 20 19 19 22 23 26 24 26 22 30 29 37 33 34 36 38 40 41 42 39
24 25 28 25 22 22 22 22 21 22 22 21 19 23 24 22 25 27 25 29 26 29 29 26 31 36 39 37 44 42 39 35
22 22 29 31 28 26 25 25 25 26 24 25 27 24 24 29 26 28 29 29 32 31 30 29 30 34 35 41 34 40 28 24
15 23 24 30 33 30 28 28 28 27 30 30 30 27 27 27 30 32 30 32 35 32 33 32 31 33 36 35 34 31 28 27
9 17 20 27 28 28 30 30 31 32 33 33 32 32 30 35 29 30 31 32 34 31 30 28 27 33 33 33 23 28 37 36
9 7 9 22 25 25 31 31 35 36 37 36 37 32 32 28 28 29 29 29 28 29 29 30 33 34 34 32 24 26 31 38
9 10 11 13 23 25 26 30 26 28 29 28 31 28 28 29 25 21 24 25 28 30 30 30 31 31 32 34 25 32 30 36
11 12 11 10 13 16 33 32 29 29 29 27 26 26 24 21 23 25 26 28 30 31 32 32 33 32 31 35 37 32 33 33
15 13 18 20 20 18 18 21 23 24 25 24 25 25 24 24 26 30 30 31 32 32 32 33 32 32 35 31 37 34 32 32
19 16 21 29 24 20 22 25 27 28 27 28 27 27 29 28 31 32 33 34 34 34 32 32 35 36 35 35 31 31 33 34
21 22 29 33 29 26 30 31 32 32 30 29 30 30 34 35 33 31 32 32 33 33 33 33 33 34 32 29 29 31 31 31
24 29 30 32 34 35 27 27 29 31 32 35 33 30 28 30 31 31 30 30 31 32 32 31 29 29 28 29 29 30 31 32

GFSFLT1_700_spd_072.txt.gz
Wind_Speed
3 4 7 9 2 18 18 16 14 14 22 22 20 41 37 36 38 41 35 38 33 25 23 19 16 15 14 12 11 12 11 11
7 2 2 6 12 17 19 17 19 21 23 23 37 36 28 33 35 35 37 35 28 25 23 20 19 16 15 14 13 14 13 17
5 6 4 4 11 18 22 21 21 23 23 26 29 27 27 33 37 40 36 30 28 25 22 20 18 17 16 15 16 17 17 21
4 5 4 7 8 11 15 17 19 22 25 28 31 32 37 37 36 35 32 30 27 22 19 19 18 18 18 19 19 19 18 23
3 6 3 5 8 9 11 10 10 13 16 20 25 29 29 28 28 27 28 26 24 21 20 19 18 18 18 19 20 21 22 21
6 6 5 6 8 9 11 13 14 14 15 17 20 22 21 22 24 26 27 26 22 19 18 18 18 17 18 21 22 24 26 24
9 11 12 12 12 12 14 15 15 16 16 17 18 20 21 22 21 22 22 20 19 19 20 19 18 14 16 22 24 27 29 29
13 16 14 14 14 15 16 16 17 18 18 19 19 19 21 21 21 21 18 17 17 16 21 21 19 21 19 20 22 22 28 25
11 8 11 14 14 16 17 19 21 21 21 17 18 17 18 18 20 20 20 21 19 19 20 25 24 24 24 22 22 22 25 28
17 14 12 9 11 14 18 19 19 22 21 22 22 22 22 21 21 21 21 22 21 25 24 26 27 25 28 20 26 25 26 28
22 22 19 15 14 14 14 14 18 20 22 24 24 25 25 27 27 27 30 29 29 28 29 23 26 29 28 31 29 28 28 27
25 27 25 24 21 21 21 19 17 18 20 22 24 28 31 33 33 34 32 36 37 36 22 22 21 25 28 25 30 32 28 29
15 19 20 22 21 25 28 25 25 29 28 26 26 30 31 35 39 34 37 18 36 11 28 26 25 27 28 26 30 28 31 35
12 14 15 20 21 22 23 27 31 32 24 26 25 32 32 29 37 28 22 16 12 13 17 20 24 28 29 28 29 28 33 35
15 16 15 16 17 17 19 20 27 28 31 28 25 17 19 26 21 23 19 18 16 18 19 21 26 29 31 29 30 31 35 33
18 19 18 18 16 14 13 12 17 22 24 24 25 21 18 19 20 23 21 22 22 22 23 25 29 31 29 27 27 38 29 35
22 23 23 24 22 22 20 17 17 22 24 25 24 23 23 24 23 25 24 24 25 26 29 31 30 28 30 31 31 30 30 30
27 24 24 21 24 26 26 25 23 22 25 26 29 31 30 29 28 29 27 26 27 31 29 29 30 30 30 29 29 30 32 30
22 18 20 22 25 27 27 27 28 27 27 30 32 30 30 31 30 28 28 29 27 28 29 30 29 28 27 26 26 27 27 27

GFSFLT1_700_spd_075.txt.gz
Wind_Speed
10 9 9 12 12 19 20 18 22 21 19 26 24 29 36 38 41 38 36 32 26 27 28 26 21 19 17 14 12 12 11 11
11 8 3 7 1 22 25 23 22 22 25 27 23 30 37 41 41 38 34 32 32 32 27 24 24 20 17 16 17 14 14 16
8 7 1 5 10 14 21 23 22 21 23 26 22 26 39 38 33 37 37 36 30 32 27 25 22 20 20 21 19 18 18 19
5 4 3 6 9 16 19 17 16 27 24 22 25 34 37 34 35 38 39 35 34 35 28 24 23 24 23 22 20 20 20 22
5 3 2 7 10 12 16 18 18 20 24 28 29 29 32 28 30 34 37 36 37 32 29 25 24 23 22 22 22 23 23 24
4 3 3 7 8 7 8 11 14 18 21 21 23 26 28 30 34 35 35 33 30 27 25 25 25 23 23 22 24 25 26 25
7 8 8 7 8 9 9 7 7 8 11 15 17 18 23 27 27 28 28 27 28 25 25 24 24 25 23 23 25 26 26 26
11 12 8 8 9 9 10 10 8 8 8 10 11 15 18 22 23 24 26 27 25 22 25 26 25 24 26 26 25 24 24 26
12 10 12 11 9 10 10 11 11 11 10 10 11 13 15 17 19 22 23 24 24 25 24 27 24 28 30 30 31 26 26 25
16 12 7 6 10 9 10 11 12 14 14 14 15 16 16 17 19 23 24 24 26 27 28 29 30 32 36 35 32 26 23 28
18 16 14 11 9 8 10 11 12 14 16 17 18 20 21 21 24 26 26 29 30 30 31 28 31 35 34 32 31 27 35 37
17 17 15 17 17 17 15 18 19 14 18 21 24 27 28 29 29 31 31 33 34 35 38 42 43 38 28 30 28 27 36 37
8 8 14 17 22 23 21 21 25 29 28 21 19 21 21 32 27 37 32 41 48 25 20 21 23 28 27 29 30 33 38 33
8 9 9 12 14 18 18 20 22 29 32 27 26 20 19 17 28 33 28 27 29 23 19 18 19 30 28 27 30 34 34 36
13 10 10 12 10 12 15 17 18 21 23 26 25 26 21 18 18 26 31 25 18 19 20 23 21 24 26 29 32 36 38 37
18 17 16 15 13 11 13 14 14 13 17 21 23 21 20 18 19 18 20 19 20 21 22 25 26 28 28 34 37 37 37 34
22 21 20 21 19 15 15 18 17 18 15 19 21 22 21 23 23 25 24 24 25 24 25 29 31 33 34 39 35 34 35 38
26 25 22 19 18 19 20 20 19 21 23 21 23 23 23 25 28 31 30 28 28 29 30 31 33 36 32 32 33 36 41 40
22 22 20 24 19 19 20 21 25 22 23 23 22 24 26 30 33 29 26 26 28 29 30 29 28 29 30 32 34 35 34 35

GFSFLT1_700_spd_081.txt.gz
Wind_Speed
12 12 11 12 14 12 14 16 17 19 17 21 28 26 29 28 44 36 38 39 33 23 25 30 30 23 17 14 11 9 10 10
10 11 9 9 12 13 14 16 20 19 22 21 21 30 36 35 44 44 43 37 31 29 35 32 25 17 15 13 10 8 8 12
9 10 8 7 9 8 17 18 17 21 22 18 15 32 38 37 48 49 52 44 38 38 32 17 16 18 17 16 11 11 12 15
9 9 6 4 4 6 12 18 14 21 22 17 21 36 41 40 37 31 45 46 41 36 28 26 22 21 20 16 15 14 15 18
7 8 6 6 1 4 2 13 16 20 24 20 24 24 32 37 33 28 39 45 40 33 28 27 25 23 20 18 18 17 22 21
6 8 6 7 5 4 3 6 8 18 22 21 23 22 26 22 28 28 35 41 35 33 31 29 28 24 21 21 22 23 23 26
10 10 8 7 9 7 6 6 6 9 21 26 27 25 24 31 26 26 30 38 39 36 34 31 28 28 28 26 26 27 26 28
15 14 6 6 7 8 8 8 8 9 10 16 23 24 24 27 27 26 27 35 36 33 33 33 31 31 32 32 31 31 29 33
19 16 10 7 7 7 8 9 10 11 12 14 16 21 26 28 29 27 25 29 31 33 35 35 35 33 36 36 36 36 37 38
20 14 12 11 11 8 8 10 11 12 13 14 15 16 18 20 22 23 25 28 31 33 34 35 36 36 36 38 41 42 42 43
24 19 15 13 12 13 13 14 13 12 14 15 16 17 19 21 23 23 26 27 29 31 32 34 35 37 39 42 43 44 44 44
18 21 21 19 17 14 14 15 16 18 19 19 19 19 19 20 22 22 23 25 28 29 30 31 33 36 39 41 40 44 44 46
20 20 23 22 21 20 18 16 15 14 15 18 20 18 18 19 21 23 24 28 29 30 31 33 38 37 44 49 45 45 36 46
13 15 17 22 22 22 20 18 17 17 17 19 19 23 27 25 23 41 30 29 32 31 32 34 31 36 44 40 36 29 34 32
13 12 8 8 18 21 19 19 17 14 15 16 17 18 22 24 16 18 20 17 20 26 32 36 40 38 31 33 31 32 32 34
18 16 9 9 12 15 13 13 12 9 10 10 9 11 14 20 27 22 24 24 24 26 29 30 33 31 33 33 32 34 37 37
21 21 13 11 12 14 12 12 11 9 9 9 12 14 14 15 20 23 28 29 29 27 27 27 29 31 34 37 36 38 40 39
19 23 21 17 17 17 16 13 14 13 14 15 14 17 19 18 20 23 24 26 27 29 31 31 33 35 35 36 39 42 40 41
23 24 25 22 22 23 22 22 20 18 19 19 20 19 22 22 22 24 25 26 29 31 33 34 37 39 40 40 40 40 42 38

GFSFLT1_700_spd_084.txt.gz
Wind_Speed
16 13 14 14 14 14 10 16 21 22 15 15 21 33 31 29 18 49 45 45 47 47 38 39 35 29 27 24 20 17 14 11
15 13 13 13 12 14 9 22 19 17 21 22 23 22 21 22 28 41 50 46 37 30 31 34 34 27 28 24 22 18 13 14
14 14 14 11 10 13 4 18 19 22 21 23 25 25 21 18 24 39 48 45 36 37 35 32 27 29 28 25 19 17 14 12
14 14 14 10 7 8 2 15 18 19 20 22 27 27 27 25 23 33 40 41 37 29 30 31 31 37 26 20 18 17 15 14
13 12 13 9 6 2 1 10 18 19 25 20 21 27 30 28 29 40 46 43 40 38 35 30 26 24 21 19 19 18 17 14
13 13 12 9 7 4 1 4 15 18 20 24 22 25 26 30 33 35 40 40 46 42 37 33 30 23 22 21 21 18 17 17
15 16 11 9 8 6 3 3 5 13 18 22 19 26 28 34 34 35 26 27 45 43 39 37 30 27 26 24 22 22 20 21
19 17 8 8 8 9 8 6 6 6 13 19 23 26 22 26 30 30 28 32 48 47 42 38 33 31 29 27 26 25 25 27
23 19 13 10 10 10 10 10 8 8 9 12 17 23 25 26 31 26 26 28 44 45 43 39 35 32 31 30 30 31 32 34
25 23 18 13 11 10 11 11 11 10 9 10 12 16 20 22 28 27 26 27 34 42 40 37 34 33 33 34 34 34 36 37
27 24 20 16 15 14 14 14 13 14 14 13 13 13 15 17 20 22 24 26 31 37 38 36 35 35 35 37 38 37 38 40
28 25 22 18 18 17 17 18 18 18 17 17 17 17 18 18 18 19 21 24 27 29 32 34 34 35 36 37 37 38 41 43
26 30 26 25 22 19 16 16 18 19 19 20 20 20 20 21 20 20 21 23 25 27 30 32 34 35 36 38 38 41 44 47
20 26 29 29 27 25 22 20 19 18 18 18 21 23 22 21 19 21 23 26 29 29 31 33 33 36 38 39 41 42 45 48
18 18 21 30 30 29 27 26 24 22 21 21 22 22 24 24 25 27 27 31 35 29 31 34 35 36 40 42 43 45 47 45
18 20 18 18 22 27 29 29 26 25 22 21 22 21 25 29 30 32 33 24 29 29 28 32 35 39 41 43 44 42 42 39
16 21 23 18 18 21 25 27 26 24 20 17 17 19 23 24 29 33 35 30 31 32 34 37 35 34 34 36 39 41 43 45
19 24 27 24 21 21 22 20 23 22 19 16 16 19 20 22 23 24 25 31 35 37 39 38 37 37 36 36 38 40 43 42
27 23 31 31 29 27 28 26 25 23 22 20 19 19 19 22 25 26 25 28 33 36 39 40 40 40 40 40 41 44 45 45

GFSFLT1_700_spd_087.txt.gz
Wind_Speed
17 20 18 19 20 18 19 20 19 17 18 18 17 15 10 19 30 43 49 47 45 43 33 33 38 39 30 24 17 18 18 16
20 19 17 17 19 15 17 17 15 15 17 17 15 15 19 27 29 30 37 42 38 40 41 43 43 34 27 24 24 21 20 17
21 17 15 15 17 13 16 12 18 16 15 16 16 20 21 20 22 19 26 36 42 50 47 45 30 27 28 26 27 26 20 18
19 16 14 15 15 10 11 9 18 18 19 18 24 23 22 21 15 15 39 42 49 48 43 37 35 34 28 31 30 24 20 18
19 16 13 12 12 9 8 8 16 19 18 23 23 23 23 19 16 12 20 35 43 42 38 36 30 34 33 31 26 21 20 19
19 16 13 12 11 10 7 6 14 16 17 21 23 25 19 19 21 16 21 39 39 39 40 35 34 31 31 33 26 26 23 20
20 19 14 12 11 12 8 5 6 15 18 21 21 27 22 25 27 23 25 39 40 41 36 34 32 31 30 27 27 25 22 22
22 23 13 11 10 12 9 6 3 7 15 18 22 22 26 26 25 23 30 37 43 42 38 38 34 30 30 27 27 24 24 24
23 25 16 13 13 13 12 8 5 3 8 16 17 19 16 20 20 24 28 28 25 35 39 38 36 34 33 29 27 27 27 26
21 25 23 16 15 14 13 12 10 7 6 8 14 18 21 20 19 23 25 26 24 25 34 40 38 37 35 32 31 32 32 30
21 23 25 20 17 16 15 14 14 12 11 10 10 11 14 18 23 28 23 21 23 29 34 40 37 37 38 37 36 36 34 34
23 23 27 23 22 20 18 16 15 14 14 13 13 13 13 15 17 21 24 25 25 26 29 35 38 40 41 41 38 37 36 35
22 24 28 26 24 23 22 19 18 16 16 15 14 14 15 16 16 17 20 22 25 26 29 33 39 41 43 41 38 36 37 38
19 25 30 27 25 24 22 19 18 19 20 19 19 18 17 16 16 16 18 20 22 24 26 28 32 36 37 36 37 37 38 41
10 18 30 31 30 29 28 24 21 20 19 20 20 20 20 20 22 23 25 26 28 28 27 29 32 34 34 36 38 40 42 44
9 16 21 27 32 34 34 30 29 27 24 23 22 22 23 24 27 27 29 29 28 27 27 34 34 33 35 37 38 41 44 45
10 13 20 21 24 30 36 35 34 31 29 26 25 26 27 27 30 31 31 31 31 31 28 34 39 36 35 33 35 38 40 41
22 20 17 25 25 25 27 31 33 34 33 31 28 27 27 29 30 31 31 32 36 36 34 30 32 36 40 37 38 39 41 41
23 34 29 23 26 30 28 27 29 30 30 29 28 25 24 24 25 26 27 26 27 30 37 41 39 41 43 41 39 41 42 44

GFSFLT1_700_spd_090.txt.gz
Wind_Speed
21 20 22 20 23 19 21 21 21 25 25 22 22 20 19 17 22 25 17 22 35 54 48 46 47 40 34 30 26 30 21 18
23 25 21 20 21 18 20 19 23 21 19 13 15 17 16 12 10 18 19 41 55 56 46 45 46 36 37 30 31 28 24 24
25 30 19 18 20 16 17 18 20 15 8 10 12 12 9 4 11 31 31 46 54 51 56 37 46 48 47 38 31 26 27 20
29 29 18 16 18 14 15 16 17 12 11 12 13 9 10 15 19 32 37 35 44 47 41 33 46 45 31 33 30 21 20 23
28 29 18 14 17 12 13 13 15 12 13 17 9 9 9 10 17 14 17 24 34 42 40 40 33 38 32 30 21 26 26 29
28 28 21 14 15 12 11 11 13 12 14 16 14 15 15 12 12 8 4 15 25 32 31 32 37 27 30 27 27 32 32 26
25 26 25 16 15 11 10 9 10 11 13 14 13 17 14 14 13 11 9 14 23 32 37 37 36 30 30 29 30 35 22 20
24 27 31 19 14 9 10 10 8 8 10 14 14 18 16 15 16 13 13 16 27 36 43 41 37 34 28 31 28 30 26 25
23 27 31 20 15 11 10 10 9 7 5 9 13 19 14 18 18 16 14 15 26 34 40 39 37 32 32 31 30 28 27 26
19 25 30 23 17 13 10 11 11 8 5 7 10 12 15 13 17 17 18 18 21 29 34 37 37 36 32 26 31 31 28 27
21 25 30 22 20 16 13 13 12 10 7 6 7 8 12 15 19 19 21 22 24 22 27 35 37 34 35 32 34 32 30 30
22 23 28 22 23 19 16 15 14 11 10 8 7 8 9 11 12 16 19 21 23 25 27 26 33 36 36 36 37 35 36 34
15 23 26 25 23 23 19 17 16 14 13 13 12 11 11 11 12 13 19 21 21 25 26 30 32 33 38 35 38 38 39 35
14 20 24 27 22 24 23 20 19 17 18 16 15 14 15 14 14 15 17 19 21 22 24 25 28 30 33 36 37 38 39 38
11 18 21 28 24 25 25 22 21 19 17 19 18 16 15 15 16 18 19 20 21 22 23 23 24 26 30 35 37 38 40 44
8 9 19 25 28 28 29 27 26 24 22 17 17 17 17 19 21 23 23 25 26 26 28 29 29 31 32 33 36 39 40 40
12 11 12 18 26 29 31 33 33 32 29 26 22 22 22 22 23 24 26 27 27 29 29 29 29 31 35 38 38 36 35 38
15 14 10 12 17 24 25 27 32 36 35 32 31 29 26 25 26 27 28 29 29 29 29 30 31 32 32 33 37 38 37 36
22 22 25 20 15 17 19 25 26 28 34 37 37 35 32 30 30 29 29 29 28 29 31 34 37 38 36 32 32 35 39 41

GFSFLT1_700_spd_093.txt.gz
Wind_Speed
28 31 32 27 20 18 17 20 20 17 22 22 19 21 23 25 24 25 25 30 24 28 28 44 44 40 39 38 32 29 27 25
32 32 33 23 18 17 18 20 19 18 20 16 16 17 19 21 23 25 28 31 35 35 40 52 47 45 42 37 32 31 31 28
33 34 32 23 18 17 18 19 17 18 14 7 5 8 14 17 18 20 21 24 24 32 55 50 43 51 42 38 40 37 40 34
35 35 33 23 19 18 18 18 15 16 11 6 9 11 13 18 19 21 18 24 28 36 58 53 51 50 45 42 43 41 32 35
35 37 33 22 19 19 18 17 14 13 11 6 11 9 11 12 6 6 26 37 48 61 59 52 41 50 47 51 48 34 31 25
31 34 30 23 21 19 18 16 12 11 11 9 11 13 14 9 9 13 25 37 47 49 51 42 38 43 54 50 33 31 29 27
33 28 26 25 22 20 18 14 11 8 10 8 10 13 12 12 14 19 14 31 33 40 45 43 40 29 38 38 34 30 30 27
36 34 33 29 24 18 16 14 10 7 7 7 6 9 13 11 12 17 18 16 22 30 39 41 37 35 40 34 30 26 31 34
32 29 27 26 20 17 15 12 8 6 4 5 6 13 16 15 16 15 14 11 12 25 29 31 38 38 36 33 28 28 26 32
28 25 23 25 19 17 14 11 8 6 2 4 5 8 15 16 18 14 16 14 11 19 30 35 40 37 30 28 34 28 28 27
21 22 24 17 14 17 16 12 9 8 5 2 4 6 10 14 15 19 17 19 16 19 25 34 36 37 34 34 29 25 28 29
22 27 25 19 14 16 17 15 11 7 7 5 3 4 7 12 13 16 17 25 22 21 23 29 33 35 36 31 29 28 29 34
18 22 29 21 16 16 20 18 13 11 10 9 7 6 5 6 8 11 16 19 28 27 25 26 29 35 37 37 35 32 33 36
22 15 27 23 18 15 20 20 17 14 14 12 11 11 9 7 8 10 13 16 20 23 30 30 31 32 34 34 35 37 36 37
7 10 19 20 20 16 18 23 20 18 17 15 15 13 12 12 12 13 14 14 16 17 18 22 26 27 30 33 34 36 37 36
7 6 17 17 18 20 19 22 23 22 20 19 16 16 16 16 16 17 18 19 19 19 20 21 23 25 27 29 30 32 36 36
10 9 12 15 20 24 24 20 24 26 25 24 22 21 20 19 19 18 19 21 23 24 25 25 27 27 27 27 28 31 33 31
17 15 13 16 18 20 20 19 19 23 30 32 29 27 26 24 23 22 22 22 23 24 24 26 27 27 28 30 31 33 34 38
18 21 20 21 19 18 22 21 16 12 16 25 35 34 31 30 28 27 25 26 25 24 25 27 29 29 31 32 34 36 36 37

GFSFLT1_700_spd_099.txt.gz
Wind_Speed
26 22 26 31 30 30 27 26 23 23 26 27 27 25 27 27 26 23 23 25 18 16 16 33 41 37 39 40 39 37 32 29
27 25 25 21 28 30 20 24 21 23 25 27 25 26 29 27 27 28 28 30 25 21 14 33 28 32 40 41 40 38 36 35
29 27 26 23 23 24 24 24 22 22 24 26 25 27 25 23 22 29 32 29 29 23 23 23 33 39 42 41 42 40 38 37
29 25 26 27 25 26 23 25 23 22 23 25 24 25 22 18 19 26 32 30 26 23 27 28 27 34 35 41 41 39 40 40
27 29 28 29 27 30 28 27 24 23 22 24 23 24 21 17 12 23 33 33 31 30 29 33 40 43 38 47 41 41 40 40
34 31 27 28 29 28 32 28 25 23 22 23 23 23 22 20 19 20 25 31 32 31 31 40 38 45 47 44 47 44 42 40
39 26 29 26 35 29 32 30 26 22 21 22 21 23 22 22 19 19 21 29 34 36 37 43 46 52 52 49 49 50 47 39
40 36 33 24 28 32 27 29 24 20 21 20 20 21 20 19 17 17 20 24 31 33 39 39 41 52 49 52 51 55 46 43
35 40 29 29 27 29 26 26 19 19 18 17 17 17 15 17 18 16 15 16 31 34 34 30 35 47 59 55 48 46 44 42
31 35 30 24 22 25 21 24 18 18 15 14 12 14 13 15 16 13 14 9 14 23 27 22 25 43 59 51 38 32 44 45
28 33 29 25 24 20 18 21 18 17 15 12 9 10 11 14 14 11 11 10 7 11 13 20 23 50 43 40 31 23 39 38
9 25 28 28 24 17 18 20 18 15 12 9 6 7 9 11 12 15 14 14 16 19 24 25 25 30 32 30 28 30 26 34
12 26 28 28 23 19 15 17 18 16 13 10 7 6 7 7 9 11 16 15 21 20 18 23 27 31 33 39 34 35 34 36
2 14 26 25 23 22 15 14 16 17 15 13 11 8 7 7 6 8 11 15 16 25 23 21 26 28 30 36 34 36 36 34
10 20 19 26 24 23 17 13 15 17 17 16 14 11 9 9 9 8 9 11 13 16 19 23 22 27 28 29 33 37 35 34
8 5 18 22 27 29 28 20 17 15 15 16 15 14 13 12 13 13 11 11 12 13 15 16 20 25 30 33 36 38 38 35
14 3 11 15 15 20 24 22 18 16 15 14 15 17 15 15 16 16 17 15 15 15 16 17 17 20 24 30 33 36 38 40
15 7 6 7 10 14 17 18 18 16 13 13 15 15 17 18 18 19 20 21 21 20 19 19 20 21 24 27 31 35 38 39
11 14 6 8 8 8 10 11 11 15 12 14 13 14 16 19 20 22 23 25 26 26 25 24 24 24 26 28 31 35 36 37

GFSFLT1_700_spd_102.txt.gz
Wind_Speed
33 31 28 27 26 30 30 28 26 25 26 25 24 25 25 23 25 27 28 26 22 21 20 22 28 35 47 45 45 40 34 31
30 30 26 27 23 20 23 24 23 23 24 21 23 24 24 23 26 27 26 24 21 26 18 20 25 30 57 52 45 38 36 38
37 33 30 29 28 23 20 21 27 25 24 21 23 24 24 24 26 26 25 29 28 25 21 20 16 40 44 43 43 38 39 35
35 35 33 29 31 25 23 20 25 23 24 21 22 24 23 23 24 22 22 29 30 31 25 28 21 34 39 40 41 40 41 40
35 38 35 31 28 28 25 22 25 23 25 23 23 24 23 22 22 20 18 28 31 29 29 25 31 20 26 31 37 41 38 37
30 39 39 31 31 28 26 26 29 26 26 23 23 24 22 23 22 21 19 25 28 28 29 26 24 34 24 32 39 40 39 39
29 36 42 35 29 30 26 26 31 29 25 22 23 23 22 23 20 20 20 20 31 29 28 27 30 30 36 38 39 41 40 39
31 33 36 37 27 26 28 29 31 31 25 21 22 21 21 22 18 18 21 22 25 28 33 31 33 34 34 46 45 45 43 42
34 31 32 39 27 26 25 26 31 29 22 20 20 18 19 18 14 15 19 20 24 28 34 37 35 35 38 52 46 45 50 48
29 31 28 38 30 27 29 28 27 26 20 20 16 16 15 14 11 15 18 20 22 25 28 29 38 34 26 42 46 46 47 52
20 26 26 27 30 33 26 23 23 23 19 17 14 12 11 11 9 11 17 18 15 14 21 30 29 23 15 33 42 49 50 40
7 14 25 30 35 32 26 25 25 24 20 15 12 10 8 7 6 9 11 10 9 14 15 19 22 23 22 25 41 48 34 22
12 10 27 31 39 31 27 24 27 22 18 14 11 8 5 4 4 5 9 11 11 8 8 11 14 16 15 28 38 33 35 27
15 6 25 36 33 30 24 24 28 23 17 14 12 9 6 4 4 4 6 7 12 12 11 11 10 14 16 23 25 29 28 27
28 5 20 27 32 32 31 26 24 21 17 14 13 11 9 6 5 5 7 6 9 11 14 15 14 15 22 25 25 30 32 27
27 13 14 9 22 31 31 27 23 20 18 13 13 12 11 9 8 8 8 8 8 10 11 15 16 19 21 27 26 30 35 32
25 23 8 15 21 25 22 24 22 21 19 16 13 12 12 11 11 11 11 12 11 11 11 12 14 15 19 22 26 26 27 30
25 21 7 6 8 13 20 23 26 18 15 14 12 10 7 7 10 13 14 15 15 15 14 14 14 16 17 20 23 27 30 33
20 19 12 4 7 12 11 11 12 13 20 15 11 9 6 5 7 8 12 17 20 20 20 20 19 19 22 24 26 27 30 34

GFSFLT1_700_spd_105.txt.gz
Wind_Speed
26 30 33 31 31 28 28 27 29 27 24 25 25 25 24 23 24 22 22 22 23 19 24 21 21 22 22 33 35 34 40 35
29 34 31 30 31 29 31 29 34 31 25 23 22 23 23 23 24 22 22 22 22 21 23 25 26 25 26 37 33 29 42 41
36 36 35 33 31 31 31 27 25 26 28 24 24 24 23 23 24 22 22 20 20 22 26 29 22 21 31 41 42 36 50 49
30 33 35 36 34 33 34 31 26 28 26 26 25 24 21 23 24 22 21 21 20 20 28 26 27 25 24 32 48 44 48 49
21 26 30 36 37 37 35 35 32 30 26 26 26 23 22 22 24 23 23 21 20 21 26 25 21 24 15 30 49 42 42 49
21 21 23 30 37 37 36 36 34 29 27 27 26 24 22 23 24 23 22 20 19 20 26 28 26 19 26 20 36 37 36 47
25 25 25 26 34 34 38 37 35 31 28 29 26 22 21 23 23 22 21 19 19 19 28 24 27 23 30 27 19 24 30 45
31 32 25 25 25 30 38 40 34 32 27 29 24 21 21 22 21 20 19 18 18 21 24 23 27 21 33 29 30 25 31 41
35 33 35 29 27 28 38 35 34 34 30 24 23 21 22 19 19 16 15 14 16 19 20 26 30 28 30 29 33 29 35 40
37 42 37 34 29 28 38 33 28 29 31 23 22 21 20 17 17 13 11 13 16 18 22 27 30 34 29 34 33 37 39 43
36 39 40 41 31 32 40 33 27 22 28 24 21 22 18 14 12 9 10 13 15 18 22 25 31 35 32 33 30 38 39 43
44 30 36 39 32 36 41 34 27 24 30 24 21 21 16 11 8 7 9 10 6 8 13 14 22 23 24 23 24 24 38 36
36 25 25 32 33 39 40 33 24 29 31 25 23 19 15 11 6 5 7 7 8 7 10 10 16 26 29 26 28 27 28 32
35 30 6 19 29 37 36 35 26 33 30 24 23 20 15 12 9 6 6 7 8 7 8 9 11 16 18 19 16 22 24 33
36 34 4 12 18 30 34 29 32 33 29 24 22 21 17 13 11 9 7 7 5 6 7 5 8 11 11 13 10 10 10 23
28 31 7 18 24 29 36 28 31 33 28 23 21 20 19 16 13 10 8 7 6 5 6 5 5 3 6 8 13 13 13 17
27 32 26 14 32 31 30 29 32 30 26 23 21 21 19 17 15 13 11 10 8 7 7 7 7 7 6 8 9 15 20 22
24 33 26 13 10 14 30 28 28 27 21 19 18 18 18 17 15 14 13 12 11 10 9 9 9 10 11 11 14 17 23 24
19 27 22 14 13 15 13 20 23 23 24 25 22 19 16 14 12 9 8 10 11 11 12 13 13 13 14 17 18 19 21 24

GFSFLT1_700_spd_108.txt.gz
Wind_Speed
22 25 32 33 34 34 35 34 32 33 34 33 30 27 24 24 21 23 25 24 23 24 23 21 26 27 28 29 24 30 42 44
24 33 32 34 35 35 35 35 33 32 31 31 29 25 23 22 22 24 25 24 24 24 22 21 27 27 24 24 27 25 41 48
32 34 34 33 33 35 36 36 35 34 33 34 32 27 26 24 25 24 24 24 24 24 22 23 29 29 24 24 23 30 34 39
31 30 29 30 33 36 36 36 37 36 34 31 33 32 30 27 23 22 24 25 25 24 23 26 30 29 24 27 27 34 36 32
20 18 22 27 30 33 37 38 39 38 36 30 30 31 29 25 24 24 25 25 26 26 24 24 32 30 31 31 31 35 41 40
13 17 20 24 26 31 34 35 40 39 37 31 30 31 30 29 25 25 26 25 26 27 24 25 28 33 24 27 22 36 47 45
15 17 19 21 26 29 32 35 38 39 38 34 32 32 31 28 26 26 27 26 27 26 22 22 29 26 25 24 21 24 49 43
16 21 23 23 22 28 30 35 35 39 36 36 33 32 31 27 25 26 26 26 27 22 22 22 23 21 27 25 22 18 41 35
23 27 32 30 29 26 29 31 35 39 35 37 36 32 30 26 24 25 25 25 23 18 19 18 22 21 25 23 25 20 21 17
31 30 35 35 31 28 30 29 36 38 38 37 35 32 29 25 23 24 24 23 17 17 17 18 26 23 24 21 23 29 27 24
31 31 28 37 34 30 30 31 37 38 38 40 36 32 29 25 22 22 21 21 15 18 19 18 22 25 31 28 30 33 31 36
30 32 33 32 32 32 32 33 37 38 37 40 36 33 28 24 20 20 19 17 13 16 17 16 18 25 32 34 34 34 38 34
31 36 36 36 37 25 25 28 31 38 34 33 36 33 28 23 20 18 17 13 12 12 10 11 12 15 19 24 35 29 32 31
28 36 36 27 28 24 20 24 29 38 34 32 38 35 28 23 20 19 15 12 10 9 8 7 7 14 18 19 23 25 27 25
33 34 27 26 20 17 20 23 29 34 31 39 41 34 26 24 22 20 16 13 9 7 7 8 9 11 17 20 24 23 29 29
30 32 23 27 17 16 24 22 32 30 36 41 37 30 27 26 25 22 18 15 12 10 9 9 9 10 12 14 18 17 18 20
26 29 24 25 14 12 21 16 15 19 37 39 34 29 27 28 27 24 20 18 16 13 11 10 9 9 9 10 11 20 20 19
25 26 24 23 9 18 15 20 19 29 41 36 29 27 27 28 27 24 21 19 17 15 14 12 10 9 9 7 8 9 13 13
19 21 21 22 19 17 18 21 27 27 32 31 28 26 25 27 28 25 22 20 17 16 15 13 13 12 11 11 11 11 10 11

GFSFLT1_700_spd_111.txt.gz
Wind_Speed
19 21 22 23 25 27 35 41 42 39 35 34 35 33 30 31 27 24 25 24 24 23 23 24 26 30 33 30 28 28 30 34
20 20 29 35 33 34 37 40 40 42 38 36 37 32 32 31 29 25 25 26 25 25 24 26 25 27 29 28 29 26 30 29
22 26 29 39 34 36 37 39 40 42 41 37 36 32 30 31 29 28 28 26 26 27 27 26 25 27 28 30 27 24 26 24
24 24 19 24 30 34 36 37 39 41 41 42 37 34 34 33 31 31 29 26 28 28 28 28 27 28 29 29 30 29 20 21
22 19 14 15 27 31 33 36 40 42 42 44 39 35 34 35 33 32 29 29 28 29 30 30 29 28 29 30 26 20 25 15
15 14 13 13 19 28 30 33 36 38 42 43 39 35 33 34 35 33 32 30 29 30 31 31 30 28 27 29 27 30 30 33
9 9 11 12 15 25 29 31 32 34 37 39 39 36 34 35 36 34 32 30 30 31 31 32 29 28 30 31 25 30 27 34
6 8 10 14 20 25 24 29 32 34 34 38 39 37 37 37 36 34 31 31 30 30 31 30 26 25 26 28 25 27 23 28
6 9 13 20 21 28 29 27 30 35 35 36 39 39 39 39 36 34 30 30 29 30 29 27 23 23 23 27 29 28 21 22
10 13 22 29 28 28 30 29 33 35 37 36 40 40 40 40 36 34 29 30 28 28 28 24 20 20 26 25 24 23 20 18
13 15 26 27 27 26 31 32 35 36 38 38 41 40 39 40 36 31 29 28 27 28 25 22 20 21 23 22 25 20 23 23
15 21 27 28 29 28 28 32 38 39 37 38 42 41 40 39 35 30 29 27 25 26 24 23 24 23 26 27 29 23 23 25
22 28 28 33 34 30 28 32 30 32 35 37 40 38 41 40 34 31 28 26 24 24 21 19 18 22 27 30 29 29 26 29
25 27 28 30 36 29 23 30 25 29 32 34 36 39 42 40 35 31 28 25 22 21 19 16 14 18 23 25 35 33 30 29
24 26 28 29 33 29 26 24 24 26 27 32 34 40 44 39 34 31 27 24 20 18 18 13 11 12 15 17 21 22 24 25
22 25 26 26 28 29 23 21 24 24 26 34 34 38 43 40 34 31 29 23 21 19 16 12 10 8 9 11 16 20 24 25
25 28 27 26 28 27 22 21 24 27 28 35 38 41 44 39 34 32 29 24 22 19 15 11 9 7 8 10 11 13 16 19
27 25 24 25 27 23 22 19 22 26 28 31 36 42 43 37 33 32 29 25 24 20 17 13 11 11 11 10 10 10 14 16
25 20 20 23 26 28 23 24 23 20 21 28 36 41 36 29 32 32 29 27 26 23 21 17 16 14 14 14 13 12 12 15

GFSFLT1_700_spd_114.txt.gz
Wind_Speed
27 26 28 31 29 28 30 32 37 43 37 33 34 33 33 31 31 30 27 26 23 22 22 24 23 23 25 27 28 30 32 32
25 31 35 30 29 37 36 33 35 42 41 36 36 36 36 32 31 32 30 29 24 24 23 25 24 24 24 28 28 32 31 26
22 21 27 32 36 39 43 45 43 43 41 38 36 35 37 33 31 32 34 30 27 27 25 26 25 25 25 28 30 30 30 27
22 22 33 34 39 39 42 41 40 40 40 41 42 42 39 35 32 32 34 31 30 29 28 27 27 27 27 28 31 26 27 24
23 26 34 30 32 40 44 42 39 38 41 41 45 42 38 35 35 32 36 34 32 30 31 28 28 30 29 28 30 27 29 27
25 24 22 15 12 18 26 28 32 36 38 41 45 42 40 37 37 36 37 38 35 31 33 30 29 31 31 30 29 29 28 25
27 22 16 16 12 22 28 26 28 32 34 36 41 39 39 38 37 38 36 39 36 33 33 30 31 32 33 29 29 29 25 31
17 14 11 19 21 16 21 26 27 29 32 36 39 38 37 36 37 38 37 38 37 32 33 31 32 32 33 28 28 27 29 26
14 15 20 22 28 27 25 27 28 29 32 35 38 39 35 36 37 40 37 37 34 31 33 31 32 32 31 26 27 25 24 25
15 11 20 29 24 25 27 30 33 29 33 37 40 35 38 37 39 40 38 36 34 31 32 30 32 31 28 25 23 24 24 22
11 16 23 25 25 26 29 31 34 32 34 36 43 34 38 38 40 40 39 37 34 31 31 29 30 28 26 25 23 23 23 21
15 22 27 25 31 27 27 29 32 33 34 36 42 36 38 38 41 40 40 37 34 32 30 28 28 26 26 26 23 23 24 18
18 25 28 30 29 27 25 25 29 30 33 34 35 35 38 39 40 39 40 35 33 31 28 26 26 24 27 28 24 25 26 21
23 27 29 29 28 28 28 27 25 31 32 29 31 34 38 40 38 43 40 35 32 29 25 24 24 22 24 24 25 27 28 28
26 26 27 27 28 31 32 31 27 30 27 28 29 35 38 39 43 42 38 35 30 27 23 21 20 20 22 20 20 24 30 28
22 25 27 28 30 28 30 34 29 29 28 24 28 32 35 38 43 44 36 34 29 24 22 19 17 18 18 14 10 17 19 23
22 25 26 26 25 25 29 30 30 24 28 23 26 28 32 39 44 43 37 33 28 25 21 18 17 17 14 13 12 15 17 19
21 23 23 21 21 24 28 26 26 23 28 25 24 26 34 42 42 42 39 32 28 26 22 20 18 16 12 10 12 12 13 14
22 24 23 19 18 23 28 30 27 19 25 24 22 26 34 40 40 43 38 32 29 27 24 22 20 19 15 13 12 11 10 10

GFSFLT1_700_spd_117.txt.gz
Wind_Speed
34 44 37 31 29 35 31 31 30 32 34 36 36 34 35 31 28 26 25 26 27 28 25 22 20 18 19 20 22 21 24 25
25 23 33 33 31 31 38 39 35 34 35 39 41 33 33 36 33 28 27 25 26 29 29 26 22 20 20 22 23 24 24 25
25 26 28 29 36 37 37 39 39 37 39 42 45 40 31 35 34 34 30 27 27 31 32 29 27 22 21 22 25 26 25 25
21 25 28 35 41 38 36 40 40 40 41 42 46 44 37 34 34 32 31 30 28 30 32 31 30 26 24 24 25 28 28 25
30 26 27 31 35 37 41 44 45 42 43 44 47 45 41 36 34 33 34 32 31 30 33 33 32 29 26 25 26 28 31 26
34 30 27 26 37 42 44 46 47 48 48 49 51 49 42 37 36 34 34 35 32 31 34 35 34 31 28 27 29 29 30 29
25 24 22 33 32 36 44 47 47 47 50 45 42 40 40 39 38 36 35 37 36 34 35 36 35 32 30 29 31 31 30 30
24 32 36 29 27 26 32 35 34 34 33 36 40 42 40 40 39 36 36 38 38 34 35 37 37 33 30 30 32 31 28 27
36 37 33 28 27 24 20 25 25 26 29 32 35 38 41 42 39 36 36 38 37 34 34 37 36 33 31 31 31 29 24 25
27 31 35 29 29 23 27 29 30 31 34 34 37 41 42 41 40 39 37 36 37 35 33 36 35 33 30 31 29 26 22 22
31 28 26 26 30 30 32 31 30 31 35 37 38 41 45 40 37 40 39 35 37 37 32 36 35 32 29 30 27 23 20 20
20 24 28 26 27 28 28 27 28 30 34 36 37 37 42 37 38 38 39 35 39 37 32 35 35 31 29 28 24 23 20 22
18 18 19 21 26 30 29 28 29 29 31 33 36 36 37 36 38 39 36 37 38 38 33 35 33 30 28 26 23 23 22 24
14 22 25 27 30 29 29 30 31 31 31 34 34 33 33 31 32 36 36 37 36 39 35 36 32 28 26 24 22 21 25 27
17 20 27 33 33 31 30 30 33 33 33 33 33 31 30 35 35 37 33 38 38 38 36 32 29 26 23 21 20 20 25 28
23 25 27 29 30 29 30 31 32 32 32 31 29 29 25 32 37 35 34 33 45 37 35 30 28 24 21 19 18 18 24 28
23 23 25 27 28 28 28 26 26 30 31 27 28 22 24 26 30 33 35 42 45 37 34 30 26 22 20 18 17 16 19 20
16 18 21 25 27 26 24 24 27 29 29 27 23 23 23 25 27 33 40 41 43 38 31 29 25 22 19 17 17 16 16 16
15 16 18 21 22 21 22 24 27 28 28 24 19 27 23 24 24 31 38 39 36 39 32 31 27 23 21 19 17 16 17 15

GFSFLT1_700_spd_120.txt.gz
Wind_Speed
44 39 38 38 39 38 37 39 33 33 30 30 29 31 30 28 28 28 26 24 22 23 25 25 26 23 19 17 16 16 16 16
52 50 46 45 44 45 41 43 35 33 33 32 33 33 31 29 27 28 30 28 25 23 24 25 28 26 23 21 19 19 18 17
38 37 36 34 40 48 45 40 38 36 33 31 33 32 31 30 28 26 31 32 29 27 27 26 29 29 27 24 21 22 22 21
32 27 33 30 34 39 38 37 38 40 37 33 33 37 36 35 35 31 29 31 29 29 29 29 31 32 30 28 24 24 25 24
31 32 32 32 35 35 38 38 38 39 40 39 41 41 40 38 38 36 34 32 31 32 32 32 29 33 32 31 28 26 27 27
29 33 32 36 43 48 43 44 42 41 44 42 41 42 42 41 43 44 43 36 33 32 32 33 30 32 34 33 31 28 28 30
31 33 34 36 42 42 41 40 38 38 39 37 41 44 47 48 49 51 47 39 35 32 33 33 33 32 36 35 33 31 30 31
28 35 33 33 34 37 38 34 32 31 30 36 35 40 45 49 51 46 43 38 37 35 36 34 35 33 36 37 35 33 31 32
27 29 35 34 32 32 37 42 43 43 39 42 46 45 49 46 44 44 42 41 40 36 38 37 36 37 36 37 36 35 32 32
36 29 28 34 36 32 30 30 34 39 39 39 43 44 43 42 42 44 43 39 37 38 37 36 36 38 36 38 36 35 33 32
34 33 34 29 25 21 18 20 24 31 38 39 42 47 46 43 46 47 44 41 38 36 36 36 35 36 37 37 36 34 32 31
26 25 26 23 22 25 29 31 32 36 36 40 44 46 45 43 45 47 43 39 38 35 37 34 35 34 37 37 35 32 32 29
18 13 15 14 20 27 31 34 31 32 33 34 36 38 40 41 42 40 39 40 39 35 37 35 37 32 36 36 34 32 31 28
17 11 13 18 23 27 29 32 33 32 33 34 35 36 37 37 39 38 38 42 39 36 37 37 36 30 36 35 33 32 30 27
10 13 17 20 24 27 29 31 33 34 35 36 36 33 34 33 35 37 32 37 33 36 36 34 34 35 36 34 32 32 29 26
7 12 19 24 25 27 28 30 30 32 33 34 33 33 33 32 34 34 36 38 35 36 35 39 30 36 36 33 31 31 27 26
14 16 18 19 20 22 25 27 28 30 32 34 35 35 32 29 31 28 35 37 35 34 36 35 37 36 34 31 31 29 26 24
9 11 14 16 17 20 23 25 27 30 32 34 36 36 32 30 28 24 27 30 33 34 37 34 41 34 33 31 30 27 24 23
7 8 10 11 14 18 20 22 25 28 30 33 35 35 32 30 26 24 25 27 34 36 41 31 37 35 33 31 28 24 23 21

GFSFLT1_700_spd_123.txt.gz
Wind_Speed
41 37 36 38 32 29 28 30 28 28 31 32 31 31 30 28 26 26 25 25 24 24 23 23 24 24 22 19 18 17 15 14
41 43 38 40 39 37 37 36 33 35 35 34 34 35 34 31 29 28 25 25 27 26 25 25 26 25 25 24 23 22 20 18
41 45 46 43 42 41 42 43 39 38 39 39 34 30 32 33 32 29 29 25 25 28 27 27 28 27 27 27 27 25 25 23
41 43 42 40 43 47 49 48 45 41 40 41 37 35 34 36 37 33 28 24 23 25 28 30 30 31 30 30 30 29 28 27
34 33 35 44 39 38 43 45 41 47 47 43 37 37 36 38 33 30 32 29 28 27 28 33 32 33 33 30 31 32 30 31
36 39 32 39 44 38 41 44 41 40 39 40 44 43 39 35 36 37 38 36 33 32 34 36 38 36 35 32 32 35 33 33
37 38 40 33 40 41 42 40 42 42 41 40 39 44 41 40 39 40 39 40 39 39 40 41 39 39 36 35 34 35 36 35
31 33 37 35 41 42 48 42 38 38 38 37 39 41 44 40 39 39 40 42 42 45 39 38 40 38 37 39 36 35 37 37
33 33 36 35 33 33 35 36 37 37 35 35 34 34 35 35 38 41 42 45 45 40 38 38 42 42 40 39 38 36 37 38
34 36 33 30 30 29 27 27 28 30 31 29 29 30 32 38 42 44 42 47 44 40 40 39 42 41 41 41 40 38 37 40
25 26 25 24 26 26 23 23 22 23 25 28 34 38 40 44 45 46 49 47 48 45 42 40 39 39 39 40 42 38 39 40
33 31 31 30 30 27 25 28 33 33 32 36 37 41 50 54 56 54 52 50 51 48 45 42 41 39 40 39 39 38 39 39
32 27 28 26 25 22 23 25 25 28 33 37 39 43 46 47 47 45 48 50 48 45 44 43 41 39 39 38 38 36 37 38
29 25 19 12 11 13 16 20 25 31 33 34 34 37 39 41 41 42 44 45 43 42 42 43 42 40 40 37 40 36 36 36
19 16 12 12 10 14 19 26 31 31 31 32 34 35 35 36 37 37 39 41 40 39 40 39 42 40 41 37 37 37 33 34
13 7 10 7 13 20 26 27 29 29 30 31 32 33 33 33 32 33 35 37 38 35 40 42 42 40 37 35 33 35 35 34
6 2 3 7 12 14 16 20 24 25 27 29 31 33 35 34 34 35 35 34 34 32 35 34 37 39 36 37 37 34 36 34
7 6 5 5 7 10 12 15 18 22 25 28 31 34 35 36 35 34 35 33 32 35 43 40 39 37 41 40 38 35 34 34
6 5 5 7 8 10 12 15 18 21 24 27 30 33 35 36 35 35 35 33 31 31 37 39 37 38 35 39 30 33 33 33

GFSFLT1_700_spd_129.txt.gz
Wind_Speed
56 54 50 52 52 56 59 58 53 46 38 35 35 34 33 33 30 28 27 25 25 25 25 24 25 25 24 23 22 20 20 19
55 60 55 53 56 54 62 60 56 51 46 40 38 35 34 34 33 31 31 30 28 27 26 26 28 27 25 25 26 25 24 24
52 60 59 54 61 54 52 60 55 52 47 38 39 35 33 31 32 32 33 33 32 31 26 26 27 28 28 27 26 25 26 27
47 49 53 54 58 58 52 54 57 53 46 41 43 39 38 37 35 34 36 37 37 33 30 30 29 29 28 28 28 28 27 28
43 37 45 51 54 58 49 46 49 51 46 45 48 44 40 36 37 38 38 40 39 38 32 31 28 26 23 23 26 29 30 30
38 41 40 46 51 59 51 46 40 48 52 47 46 45 42 39 38 38 37 40 42 46 44 30 33 26 25 25 25 26 27 32
26 27 41 43 44 54 53 45 40 43 49 48 47 45 43 41 39 38 39 42 43 45 44 50 33 28 27 30 28 29 29 32
18 20 35 33 30 40 51 46 41 40 44 46 46 46 45 44 42 41 41 41 41 43 43 45 45 27 24 30 31 33 33 33
16 21 25 25 30 42 39 46 41 40 40 43 44 44 47 45 43 41 46 42 39 36 44 46 32 28 24 34 36 34 37 35
20 24 22 32 36 44 40 40 39 39 43 42 43 45 39 40 37 35 33 31 32 38 39 32 28 27 31 34 36 35 35 36
28 29 29 33 35 34 36 33 36 38 40 38 36 38 33 31 28 28 32 33 36 33 30 32 34 36 37 39 39 37 37 38
28 27 28 26 26 27 28 31 32 32 31 32 34 29 30 32 32 32 30 29 33 35 37 40 43 45 46 46 46 41 41 41
28 31 32 35 34 33 31 28 27 26 26 29 27 29 27 26 27 27 30 33 36 41 45 46 47 47 45 45 44 41 43 44
19 20 25 31 32 34 32 29 27 26 24 20 22 24 30 33 32 36 39 40 42 43 44 44 45 45 44 43 42 41 43 44
19 19 7 10 17 16 15 20 25 24 24 22 24 27 27 28 32 35 37 41 43 43 42 43 44 42 43 42 41 42 44 42
17 16 15 11 5 10 15 12 2 7 14 19 20 22 28 33 37 39 40 41 41 41 43 42 42 43 42 41 42 43 45 42
18 19 15 14 10 8 6 6 6 8 11 14 20 22 23 28 31 34 37 40 42 43 43 42 42 42 41 41 41 41 43 41
17 15 12 11 8 7 7 5 4 5 7 6 9 11 15 18 21 25 31 36 40 42 43 43 41 42 42 41 40 38 39 40
11 10 10 9 8 9 9 7 6 5 6 7 11 15 18 21 24 25 26 27 30 33 36 39 40 39 39 37 33 34 38 37